Time,TemperatureF,DewpointF,PressureIn,WindDirection,WindDirectionDegrees,WindSpeedMPH,WindSpeedGustMPH,Humidity,HourlyPrecipIn,Conditions,Clouds,dailyrainin,SoftwareType,DateUTC
2013-12-03 00:00:00,48.5,46.2,29.89,NNW,335,0.0,6.0,92,0.00,,,0.00,Weather View 32 v70,2013-12-03 05:00:00,
2013-12-03 00:01:00,48.4,46.1,29.89,North,357,3.0,6.0,92,0.00,,,0.00,Weather View 32 v70,2013-12-03 05:01:00,
2013-12-03 00:03:00,48.4,46.2,29.89,NNW,343,2.0,6.0,92,0.00,,,0.00,Weather View 32 v70,2013-12-03 05:03:00,
2013-12-03 00:06:00,48.4,46.2,29.89,NNW,339,3.0,6.0,92,0.00,,,0.00,Weather View 32 v70,2013-12-03 05:06:00,
2013-12-03 00:07:00,48.3,46.1,29.89,NNW,333,0.0,6.0,92,0.00,,,0.00,Weather View 32 v70,2013-12-03 05:07:00,
2013-12-03 00:08:00,48.4,46.2,29.89,NNW,329,3.0,6.0,92,0.00,,,0.00,Weather View 32 v70,2013-12-03 05:08:00,
2013-12-03 00:11:00,48.3,46.1,29.89,NW,326,3.0,6.0,92,0.00,,,0.00,Weather View 32 v70,2013-12-03 05:11:00,
2013-12-03 00:12:00,48.3,46.1,29.89,NW,326,4.0,6.0,92,0.00,,,0.00,Weather View 32 v70,2013-12-03 05:12:00,
2013-12-03 00:14:00,48.3,46.1,29.89,North,357,2.0,6.0,92,0.00,,,0.00,Weather View 32 v70,2013-12-03 05:14:00,
2013-12-03 00:16:00,48.2,46.1,29.89,North,8,2.0,6.0,92,0.00,,,0.00,Weather View 32 v70,2013-12-03 05:16:00,
2013-12-03 00:17:00,48.2,46.1,29.89,North,6,0.0,6.0,92,0.00,,,0.00,Weather View 32 v70,2013-12-03 05:17:00,
2013-12-03 00:20:00,48.1,46.0,29.89,North,6,0.0,6.0,92,0.00,,,0.00,Weather View 32 v70,2013-12-03 05:20:00,
2013-12-03 00:21:00,48.2,46.1,29.89,North,6,0.0,6.0,93,0.00,,,0.00,Weather View 32 v70,2013-12-03 05:21:00,
2013-12-03 00:22:00,48.2,46.1,29.89,North,6,0.0,6.0,93,0.00,,,0.00,Weather View 32 v70,2013-12-03 05:22:00,
2013-12-03 00:25:00,48.1,46.1,29.89,North,0,3.0,6.0,93,0.00,,,0.00,Weather View 32 v70,2013-12-03 05:25:00,
2013-12-03 00:26:00,48.2,46.2,29.89,NNW,346,1.0,6.0,93,0.00,,,0.00,Weather View 32 v70,2013-12-03 05:26:00,
2013-12-03 00:27:00,48.1,46.1,29.89,NNW,338,3.0,6.0,93,0.00,,,0.00,Weather View 32 v70,2013-12-03 05:27:00,
2013-12-03 00:29:00,48.1,46.1,29.90,North,353,3.0,6.0,93,0.00,,,0.00,Weather View 32 v70,2013-12-03 05:29:00,
2013-12-03 00:30:00,48.1,46.1,29.89,NNW,346,3.0,6.0,93,0.00,,,0.00,Weather View 32 v70,2013-12-03 05:30:00,
2013-12-03 00:31:00,48.1,46.1,29.90,NNW,342,4.0,6.0,93,0.00,,,0.00,Weather View 32 v70,2013-12-03 05:31:00,
2013-12-03 00:32:00,48.1,46.1,29.89,North,10,0.0,6.0,93,0.00,,,0.00,Weather View 32 v70,2013-12-03 05:32:00,
2013-12-03 00:33:00,48.0,46.0,29.89,North,10,0.0,6.0,93,0.00,,,0.00,Weather View 32 v70,2013-12-03 05:33:00,
2013-12-03 00:34:00,48.1,46.1,29.89,NW,326,3.0,6.0,93,0.00,,,0.00,Weather View 32 v70,2013-12-03 05:34:00,
2013-12-03 00:35:00,48.0,46.0,29.89,North,359,4.0,6.0,93,0.00,,,0.00,Weather View 32 v70,2013-12-03 05:35:00,
2013-12-03 00:36:00,48.0,46.0,29.89,NNW,340,3.0,6.0,93,0.00,,,0.00,Weather View 32 v70,2013-12-03 05:36:00,
2013-12-03 00:37:00,48.0,46.0,29.89,NNW,329,4.0,6.0,93,0.00,,,0.00,Weather View 32 v70,2013-12-03 05:37:00,
2013-12-03 00:38:00,48.1,46.1,29.89,NNW,340,4.0,6.0,93,0.00,,,0.00,Weather View 32 v70,2013-12-03 05:38:00,
2013-12-03 00:39:00,48.1,46.1,29.90,North,4,1.0,6.0,93,0.00,,,0.00,Weather View 32 v70,2013-12-03 05:39:00,
2013-12-03 00:41:00,48.0,46.0,29.90,NNW,340,0.0,6.0,93,0.00,,,0.00,Weather View 32 v70,2013-12-03 05:41:00,
2013-12-03 00:42:00,48.0,46.0,29.90,NNW,330,2.0,5.0,93,0.00,,,0.00,Weather View 32 v70,2013-12-03 05:42:00,
2013-12-03 00:43:00,48.0,46.0,29.89,North,350,3.0,5.0,93,0.00,,,0.00,Weather View 32 v70,2013-12-03 05:43:00,
2013-12-03 00:45:00,47.9,46.0,29.89,NE,35,0.0,5.0,93,0.00,,,0.00,Weather View 32 v70,2013-12-03 05:45:00,
2013-12-03 00:46:00,47.9,46.0,29.89,North,8,5.0,5.0,93,0.00,,,0.00,Weather View 32 v70,2013-12-03 05:46:00,
2013-12-03 00:47:00,47.8,45.9,29.89,NNW,343,3.0,5.0,93,0.00,,,0.00,Weather View 32 v70,2013-12-03 05:47:00,
2013-12-03 00:48:00,47.9,46.0,29.89,NNW,333,5.0,5.0,93,0.00,,,0.00,Weather View 32 v70,2013-12-03 05:48:00,
2013-12-03 00:50:00,47.8,45.9,29.89,NNW,345,4.0,5.0,93,0.00,,,0.00,Weather View 32 v70,2013-12-03 05:50:00,
2013-12-03 00:51:00,47.8,46.0,29.89,NNW,340,4.0,5.0,93,0.00,,,0.00,Weather View 32 v70,2013-12-03 05:51:00,
2013-12-03 00:52:00,47.8,46.0,29.89,NNW,343,4.0,5.0,93,0.00,,,0.00,Weather View 32 v70,2013-12-03 05:52:00,
2013-12-03 00:53:00,47.8,46.0,29.89,NNW,333,4.0,5.0,93,0.00,,,0.00,Weather View 32 v70,2013-12-03 05:53:00,
2013-12-03 00:54:00,47.8,46.0,29.89,NNW,342,3.0,5.0,93,0.00,,,0.00,Weather View 32 v70,2013-12-03 05:54:00,
2013-12-03 00:56:00,47.7,45.9,29.90,NNW,339,4.0,5.0,93,0.00,,,0.00,Weather View 32 v70,2013-12-03 05:56:00,
2013-12-03 00:57:00,47.8,46.0,29.89,NNW,339,3.0,5.0,93,0.00,,,0.00,Weather View 32 v70,2013-12-03 05:57:00,
2013-12-03 00:59:00,47.8,46.0,29.89,NW,323,3.0,5.0,93,0.00,,,0.00,Weather View 32 v70,2013-12-03 05:59:00,
2013-12-03 01:01:00,47.7,45.9,29.90,North,356,4.0,6.0,94,0.00,,,0.00,Weather View 32 v70,2013-12-03 06:01:00,
2013-12-03 01:02:00,47.7,45.9,29.89,NW,322,5.0,6.0,94,0.00,,,0.00,Weather View 32 v70,2013-12-03 06:02:00,
2013-12-03 01:04:00,47.7,45.9,29.90,NW,325,4.0,6.0,94,0.00,,,0.00,Weather View 32 v70,2013-12-03 06:04:00,
2013-12-03 01:06:00,47.7,45.9,29.90,NNW,332,4.0,6.0,94,0.00,,,0.00,Weather View 32 v70,2013-12-03 06:06:00,
2013-12-03 01:07:00,47.7,45.9,29.90,NNW,329,4.0,6.0,94,0.00,,,0.00,Weather View 32 v70,2013-12-03 06:07:00,
2013-12-03 01:08:00,47.6,45.8,29.90,NW,321,3.0,6.0,94,0.00,,,0.00,Weather View 32 v70,2013-12-03 06:08:00,
2013-12-03 01:09:00,47.6,45.8,29.90,NW,321,4.0,6.0,94,0.00,,,0.00,Weather View 32 v70,2013-12-03 06:09:00,
2013-12-03 01:11:00,47.6,45.8,29.90,North,357,3.0,6.0,94,0.00,,,0.00,Weather View 32 v70,2013-12-03 06:11:00,
2013-12-03 01:12:00,47.6,45.8,29.90,NNW,330,4.0,6.0,94,0.00,,,0.00,Weather View 32 v70,2013-12-03 06:12:00,
2013-12-03 01:13:00,47.6,45.8,29.90,WNW,300,2.0,6.0,94,0.00,,,0.00,Weather View 32 v70,2013-12-03 06:13:00,
2013-12-03 01:14:00,47.6,45.8,29.90,NW,323,3.0,6.0,94,0.00,,,0.00,Weather View 32 v70,2013-12-03 06:14:00,
2013-12-03 01:16:00,47.5,45.7,29.90,NW,319,4.0,6.0,94,0.00,,,0.00,Weather View 32 v70,2013-12-03 06:16:00,
2013-12-03 01:17:00,47.6,45.8,29.90,NNW,338,3.0,6.0,94,0.00,,,0.00,Weather View 32 v70,2013-12-03 06:17:00,
2013-12-03 01:18:00,47.5,45.7,29.90,NNW,328,4.0,6.0,94,0.00,,,0.00,Weather View 32 v70,2013-12-03 06:18:00,
2013-12-03 01:19:00,47.6,45.8,29.90,NNW,343,3.0,6.0,94,0.00,,,0.00,Weather View 32 v70,2013-12-03 06:19:00,
2013-12-03 01:20:00,47.6,45.9,29.90,NW,325,4.0,6.0,94,0.00,,,0.00,Weather View 32 v70,2013-12-03 06:20:00,
2013-12-03 01:21:00,47.5,45.7,29.90,NW,323,3.0,6.0,94,0.00,,,0.00,Weather View 32 v70,2013-12-03 06:21:00,
2013-12-03 01:22:00,47.5,45.7,29.90,NNW,342,5.0,6.0,94,0.00,,,0.00,Weather View 32 v70,2013-12-03 06:22:00,
2013-12-03 01:23:00,47.4,45.7,29.90,NNW,340,4.0,6.0,94,0.00,,,0.00,Weather View 32 v70,2013-12-03 06:23:00,
2013-12-03 01:24:00,47.5,45.8,29.90,North,350,5.0,6.0,94,0.00,,,0.00,Weather View 32 v70,2013-12-03 06:24:00,
2013-12-03 01:25:00,47.5,45.8,29.90,NW,321,3.0,6.0,94,0.00,,,0.00,Weather View 32 v70,2013-12-03 06:25:00,
2013-12-03 01:26:00,47.5,45.8,29.90,NNW,338,4.0,6.0,94,0.00,,,0.00,Weather View 32 v70,2013-12-03 06:26:00,
2013-12-03 01:27:00,47.4,45.7,29.90,NNW,329,5.0,6.0,94,0.00,,,0.00,Weather View 32 v70,2013-12-03 06:27:00,
2013-12-03 01:28:00,47.4,45.7,29.90,North,350,4.0,6.0,94,0.00,,,0.00,Weather View 32 v70,2013-12-03 06:28:00,
2013-12-03 01:29:00,47.4,45.7,29.90,NNW,336,4.0,6.0,94,0.00,,,0.00,Weather View 32 v70,2013-12-03 06:29:00,
2013-12-03 01:30:00,47.4,45.7,29.90,NW,319,4.0,6.0,94,0.00,,,0.00,Weather View 32 v70,2013-12-03 06:30:00,
2013-12-03 01:31:00,47.4,45.7,29.90,NNW,340,4.0,6.0,94,0.00,,,0.00,Weather View 32 v70,2013-12-03 06:31:00,
2013-12-03 01:32:00,47.4,45.7,29.90,NNW,345,3.0,6.0,94,0.00,,,0.00,Weather View 32 v70,2013-12-03 06:32:00,
2013-12-03 01:33:00,47.3,45.7,29.90,NNW,345,4.0,6.0,94,0.00,,,0.00,Weather View 32 v70,2013-12-03 06:33:00,
2013-12-03 01:34:00,47.3,45.7,29.90,NW,319,3.0,6.0,94,0.00,,,0.00,Weather View 32 v70,2013-12-03 06:34:00,
2013-12-03 01:35:00,47.3,45.7,29.90,NNW,329,3.0,6.0,94,0.00,,,0.00,Weather View 32 v70,2013-12-03 06:35:00,
2013-12-03 01:36:00,47.3,45.7,29.90,NNW,329,7.0,7.0,94,0.00,,,0.00,Weather View 32 v70,2013-12-03 06:36:00,
2013-12-03 01:37:00,47.2,45.6,29.90,NNW,332,5.0,7.0,94,0.00,,,0.00,Weather View 32 v70,2013-12-03 06:37:00,
2013-12-03 01:38:00,47.2,45.6,29.90,NNW,343,4.0,7.0,94,0.00,,,0.00,Weather View 32 v70,2013-12-03 06:38:00,
2013-12-03 01:39:00,47.2,45.6,29.90,NNW,342,5.0,7.0,94,0.00,,,0.00,Weather View 32 v70,2013-12-03 06:39:00,
2013-12-03 01:41:00,47.2,45.6,29.90,NNW,329,4.0,7.0,94,0.00,,,0.00,Weather View 32 v70,2013-12-03 06:41:00,
2013-12-03 01:42:00,47.2,45.6,29.90,NNW,328,6.0,7.0,94,0.00,,,0.00,Weather View 32 v70,2013-12-03 06:42:00,
2013-12-03 01:43:00,47.1,45.5,29.90,WNW,285,4.0,7.0,94,0.00,,,0.00,Weather View 32 v70,2013-12-03 06:43:00,
2013-12-03 01:44:00,47.1,45.5,29.90,NW,325,6.0,7.0,94,0.00,,,0.00,Weather View 32 v70,2013-12-03 06:44:00,
2013-12-03 01:47:00,47.1,45.5,29.90,NW,316,5.0,7.0,94,0.00,,,0.00,Weather View 32 v70,2013-12-03 06:47:00,
2013-12-03 01:49:00,47.1,45.6,29.90,NW,322,4.0,7.0,94,0.00,,,0.00,Weather View 32 v70,2013-12-03 06:49:00,
2013-12-03 01:52:00,47.0,45.5,29.90,NNW,333,7.0,7.0,94,0.00,,,0.00,Weather View 32 v70,2013-12-03 06:52:00,
2013-12-03 01:53:00,47.0,45.5,29.90,NNW,336,5.0,7.0,95,0.00,,,0.00,Weather View 32 v70,2013-12-03 06:53:00,
2013-12-03 01:54:00,46.9,45.4,29.90,NW,323,5.0,8.0,95,0.00,,,0.00,Weather View 32 v70,2013-12-03 06:54:00,
2013-12-03 01:57:00,46.9,45.4,29.90,NW,326,5.0,8.0,95,0.00,,,0.00,Weather View 32 v70,2013-12-03 06:57:00,
2013-12-03 01:59:00,46.9,45.4,29.90,NNW,329,6.0,8.0,95,0.00,,,0.00,Weather View 32 v70,2013-12-03 06:59:00,
2013-12-03 02:00:00,46.9,45.4,29.90,NNW,333,5.0,8.0,95,0.00,,,0.00,Weather View 32 v70,2013-12-03 07:00:00,
2013-12-03 02:02:00,46.9,45.4,29.91,NNW,332,6.0,8.0,95,0.00,,,0.00,Weather View 32 v70,2013-12-03 07:02:00,
2013-12-03 02:03:00,46.9,45.4,29.91,NNW,342,6.0,8.0,95,0.00,,,0.00,Weather View 32 v70,2013-12-03 07:03:00,
2013-12-03 02:04:00,46.8,45.4,29.91,NW,325,5.0,8.0,95,0.00,,,0.00,Weather View 32 v70,2013-12-03 07:04:00,
2013-12-03 02:05:00,46.8,45.4,29.90,NNW,329,4.0,8.0,95,0.00,,,0.00,Weather View 32 v70,2013-12-03 07:05:00,
2013-12-03 02:08:00,46.8,45.4,29.90,NNW,336,3.0,8.0,95,0.00,,,0.00,Weather View 32 v70,2013-12-03 07:08:00,
2013-12-03 02:09:00,46.7,45.3,29.90,North,353,5.0,8.0,95,0.00,,,0.00,Weather View 32 v70,2013-12-03 07:09:00,
2013-12-03 02:10:00,46.7,45.3,29.90,NNW,340,4.0,8.0,95,0.00,,,0.00,Weather View 32 v70,2013-12-03 07:10:00,
2013-12-03 02:13:00,46.6,45.2,29.90,North,357,4.0,8.0,95,0.00,,,0.00,Weather View 32 v70,2013-12-03 07:13:00,
2013-12-03 02:14:00,46.6,45.2,29.90,NNW,342,5.0,8.0,95,0.00,,,0.00,Weather View 32 v70,2013-12-03 07:14:00,
2013-12-03 02:15:00,46.6,45.2,29.90,NNW,339,3.0,8.0,95,0.00,,,0.00,Weather View 32 v70,2013-12-03 07:15:00,
2013-12-03 02:18:00,46.5,45.1,29.91,NNW,343,4.0,8.0,95,0.00,,,0.00,Weather View 32 v70,2013-12-03 07:18:00,
2013-12-03 02:19:00,46.4,45.0,29.91,NNW,339,6.0,8.0,95,0.00,,,0.00,Weather View 32 v70,2013-12-03 07:19:00,
2013-12-03 02:20:00,46.4,45.0,29.91,NNW,339,7.0,8.0,95,0.00,,,0.00,Weather View 32 v70,2013-12-03 07:20:00,
2013-12-03 02:23:00,46.4,45.0,29.91,NW,318,5.0,8.0,95,0.00,,,0.00,Weather View 32 v70,2013-12-03 07:23:00,
2013-12-03 02:24:00,46.3,44.9,29.91,NW,315,5.0,8.0,95,0.00,,,0.00,Weather View 32 v70,2013-12-03 07:24:00,
2013-12-03 02:25:00,46.4,45.0,29.91,NW,319,4.0,8.0,95,0.00,,,0.00,Weather View 32 v70,2013-12-03 07:25:00,
2013-12-03 02:28:00,46.5,45.2,29.91,NW,319,6.0,8.0,95,0.00,,,0.00,Weather View 32 v70,2013-12-03 07:28:00,
2013-12-03 02:29:00,46.4,45.1,29.91,NNW,332,5.0,8.0,95,0.00,,,0.00,Weather View 32 v70,2013-12-03 07:29:00,
2013-12-03 02:30:00,46.4,45.0,29.91,NW,319,5.0,8.0,95,0.00,,,0.00,Weather View 32 v70,2013-12-03 07:30:00,
2013-12-03 02:33:00,46.4,45.0,29.91,North,357,4.0,8.0,95,0.00,,,0.00,Weather View 32 v70,2013-12-03 07:33:00,
2013-12-03 02:34:00,46.5,45.1,29.91,NW,319,6.0,8.0,95,0.00,,,0.00,Weather View 32 v70,2013-12-03 07:34:00,
2013-12-03 02:35:00,46.4,45.0,29.91,NW,326,6.0,8.0,95,0.00,,,0.00,Weather View 32 v70,2013-12-03 07:35:00,
2013-12-03 02:38:00,46.5,45.1,29.91,NNW,346,5.0,8.0,95,0.00,,,0.00,Weather View 32 v70,2013-12-03 07:38:00,
2013-12-03 02:39:00,46.3,44.9,29.91,NNW,347,5.0,8.0,95,0.00,,,0.00,Weather View 32 v70,2013-12-03 07:39:00,
2013-12-03 02:40:00,46.4,45.0,29.91,North,356,3.0,8.0,95,0.00,,,0.00,Weather View 32 v70,2013-12-03 07:40:00,
2013-12-03 02:41:00,46.4,45.0,29.91,NW,319,6.0,8.0,95,0.00,,,0.00,Weather View 32 v70,2013-12-03 07:41:00,
2013-12-03 02:43:00,46.4,45.0,29.91,NNW,342,6.0,8.0,95,0.00,,,0.00,Weather View 32 v70,2013-12-03 07:43:00,
2013-12-03 02:44:00,46.4,45.1,29.91,NNW,347,6.0,8.0,95,0.00,,,0.00,Weather View 32 v70,2013-12-03 07:44:00,
2013-12-03 02:45:00,46.4,45.1,29.91,NNW,340,4.0,8.0,95,0.00,,,0.00,Weather View 32 v70,2013-12-03 07:45:00,
2013-12-03 02:46:00,46.4,45.1,29.91,NNW,347,6.0,8.0,95,0.00,,,0.00,Weather View 32 v70,2013-12-03 07:46:00,
2013-12-03 02:48:00,46.3,44.9,29.91,North,352,5.0,8.0,95,0.00,,,0.00,Weather View 32 v70,2013-12-03 07:48:00,
2013-12-03 02:49:00,46.4,45.0,29.91,NNW,335,6.0,8.0,95,0.00,,,0.00,Weather View 32 v70,2013-12-03 07:49:00,
2013-12-03 02:50:00,46.4,45.0,29.90,NNW,329,6.0,8.0,95,0.00,,,0.00,Weather View 32 v70,2013-12-03 07:50:00,
2013-12-03 02:51:00,46.4,45.0,29.90,NNW,345,6.0,8.0,95,0.00,,,0.00,Weather View 32 v70,2013-12-03 07:51:00,
2013-12-03 02:53:00,46.3,45.0,29.90,NNW,346,4.0,8.0,95,0.00,,,0.00,Weather View 32 v70,2013-12-03 07:53:00,
2013-12-03 02:54:00,46.3,45.0,29.90,North,359,6.0,8.0,95,0.00,,,0.00,Weather View 32 v70,2013-12-03 07:54:00,
2013-12-03 02:56:00,46.3,45.0,29.90,NNW,343,6.0,7.0,95,0.00,,,0.00,Weather View 32 v70,2013-12-03 07:56:00,
2013-12-03 02:58:00,46.3,45.0,29.90,NNW,345,5.0,7.0,95,0.00,,,0.00,Weather View 32 v70,2013-12-03 07:58:00,
2013-12-03 02:59:00,46.3,45.0,29.90,NNW,346,6.0,7.0,95,0.00,,,0.00,Weather View 32 v70,2013-12-03 07:59:00,
2013-12-03 03:01:00,46.4,45.1,29.91,NNW,345,6.0,7.0,95,0.00,,,0.00,Weather View 32 v70,2013-12-03 08:01:00,
2013-12-03 03:02:00,46.4,45.1,29.90,NNW,342,6.0,7.0,95,0.00,,,0.00,Weather View 32 v70,2013-12-03 08:02:00,
2013-12-03 03:03:00,46.5,45.2,29.90,North,359,5.0,7.0,95,0.00,,,0.00,Weather View 32 v70,2013-12-03 08:03:00,
2013-12-03 03:05:00,46.5,45.2,29.90,North,4,5.0,7.0,95,0.00,,,0.00,Weather View 32 v70,2013-12-03 08:05:00,
2013-12-03 03:06:00,46.5,45.2,29.90,North,359,7.0,7.0,95,0.00,,,0.00,Weather View 32 v70,2013-12-03 08:06:00,
2013-12-03 03:07:00,46.6,45.3,29.90,NNW,346,6.0,7.0,95,0.00,,,0.00,Weather View 32 v70,2013-12-03 08:07:00,
2013-12-03 03:08:00,46.6,45.3,29.90,North,354,7.0,7.0,95,0.00,,,0.00,Weather View 32 v70,2013-12-03 08:08:00,
2013-12-03 03:10:00,46.6,45.2,29.90,North,350,6.0,7.0,95,0.00,,,0.00,Weather View 32 v70,2013-12-03 08:10:00,
2013-12-03 03:11:00,46.5,45.1,29.90,North,356,7.0,7.0,95,0.00,,,0.00,Weather View 32 v70,2013-12-03 08:11:00,
2013-12-03 03:12:00,46.6,45.2,29.90,North,359,6.0,7.0,95,0.00,,,0.00,Weather View 32 v70,2013-12-03 08:12:00,
2013-12-03 03:13:00,46.5,45.1,29.90,North,352,7.0,7.0,95,0.00,,,0.00,Weather View 32 v70,2013-12-03 08:13:00,
2013-12-03 03:15:00,46.6,45.2,29.90,North,352,6.0,7.0,95,0.00,,,0.00,Weather View 32 v70,2013-12-03 08:15:00,
2013-12-03 03:16:00,46.6,45.2,29.90,North,1,6.0,7.0,95,0.00,,,0.00,Weather View 32 v70,2013-12-03 08:16:00,
2013-12-03 03:17:00,46.6,45.2,29.90,North,353,6.0,7.0,95,0.00,,,0.00,Weather View 32 v70,2013-12-03 08:17:00,
2013-12-03 03:18:00,46.6,45.2,29.90,North,350,6.0,7.0,95,0.00,,,0.00,Weather View 32 v70,2013-12-03 08:18:00,
2013-12-03 03:20:00,46.7,45.3,29.90,North,352,6.0,7.0,95,0.00,,,0.00,Weather View 32 v70,2013-12-03 08:20:00,
2013-12-03 03:21:00,46.8,45.4,29.90,North,354,6.0,8.0,95,0.00,,,0.00,Weather View 32 v70,2013-12-03 08:21:00,
2013-12-03 03:22:00,46.8,45.4,29.90,North,352,7.0,8.0,95,0.00,,,0.00,Weather View 32 v70,2013-12-03 08:22:00,
2013-12-03 03:23:00,46.8,45.4,29.90,North,353,7.0,8.0,95,0.00,,,0.00,Weather View 32 v70,2013-12-03 08:23:00,
2013-12-03 03:24:00,46.8,45.3,29.90,North,354,7.0,8.0,95,0.00,,,0.00,Weather View 32 v70,2013-12-03 08:24:00,
2013-12-03 03:25:00,46.8,45.3,29.90,North,356,6.0,8.0,95,0.00,,,0.00,Weather View 32 v70,2013-12-03 08:25:00,
2013-12-03 03:26:00,46.9,45.4,29.90,North,354,6.0,8.0,95,0.00,,,0.00,Weather View 32 v70,2013-12-03 08:26:00,
2013-12-03 03:27:00,46.8,45.3,29.90,North,350,6.0,8.0,94,0.00,,,0.00,Weather View 32 v70,2013-12-03 08:27:00,
2013-12-03 03:28:00,46.9,45.4,29.90,NNW,345,7.0,8.0,94,0.00,,,0.00,Weather View 32 v70,2013-12-03 08:28:00,
2013-12-03 03:29:00,46.9,45.3,29.90,NNW,347,6.0,8.0,94,0.00,,,0.00,Weather View 32 v70,2013-12-03 08:29:00,
2013-12-03 03:31:00,46.8,45.2,29.90,North,354,5.0,8.0,94,0.00,,,0.00,Weather View 32 v70,2013-12-03 08:31:00,
2013-12-03 03:32:00,46.8,45.2,29.90,North,350,6.0,8.0,94,0.00,,,0.00,Weather View 32 v70,2013-12-03 08:32:00,
2013-12-03 03:33:00,46.8,45.2,29.90,North,352,7.0,8.0,94,0.00,,,0.00,Weather View 32 v70,2013-12-03 08:33:00,
2013-12-03 03:34:00,46.8,45.2,29.90,North,353,6.0,8.0,94,0.00,,,0.00,Weather View 32 v70,2013-12-03 08:34:00,
2013-12-03 03:36:00,46.8,45.2,29.90,North,356,6.0,8.0,94,0.00,,,0.00,Weather View 32 v70,2013-12-03 08:36:00,
2013-12-03 03:37:00,46.8,45.2,29.90,North,350,7.0,8.0,94,0.00,,,0.00,Weather View 32 v70,2013-12-03 08:37:00,
2013-12-03 03:38:00,46.8,45.2,29.90,NNW,345,6.0,8.0,94,0.00,,,0.00,Weather View 32 v70,2013-12-03 08:38:00,
2013-12-03 03:39:00,46.7,45.1,29.90,North,354,7.0,8.0,94,0.00,,,0.00,Weather View 32 v70,2013-12-03 08:39:00,
2013-12-03 03:42:00,46.8,45.2,29.90,NNW,345,4.0,8.0,94,0.00,,,0.00,Weather View 32 v70,2013-12-03 08:42:00,
2013-12-03 03:43:00,46.8,45.1,29.90,North,357,6.0,8.0,94,0.00,,,0.00,Weather View 32 v70,2013-12-03 08:43:00,
2013-12-03 03:44:00,46.7,45.1,29.90,North,357,5.0,8.0,94,0.00,,,0.00,Weather View 32 v70,2013-12-03 08:44:00,
2013-12-03 03:47:00,46.7,45.1,29.90,North,7,6.0,8.0,94,0.00,,,0.00,Weather View 32 v70,2013-12-03 08:47:00,
2013-12-03 03:48:00,46.8,45.2,29.90,North,6,5.0,8.0,94,0.00,,,0.00,Weather View 32 v70,2013-12-03 08:48:00,
2013-12-03 03:49:00,46.8,45.2,29.90,North,7,6.0,8.0,94,0.00,,,0.00,Weather View 32 v70,2013-12-03 08:49:00,
2013-12-03 03:52:00,46.8,45.1,29.90,North,359,5.0,8.0,94,0.00,,,0.00,Weather View 32 v70,2013-12-03 08:52:00,
2013-12-03 03:53:00,46.8,45.1,29.90,North,0,5.0,8.0,94,0.00,,,0.00,Weather View 32 v70,2013-12-03 08:53:00,
2013-12-03 03:54:00,46.7,45.0,29.90,North,3,6.0,8.0,94,0.00,,,0.00,Weather View 32 v70,2013-12-03 08:54:00,
2013-12-03 03:57:00,46.9,45.1,29.90,North,8,7.0,8.0,94,0.00,,,0.00,Weather View 32 v70,2013-12-03 08:57:00,
2013-12-03 03:58:00,47.0,45.2,29.90,North,8,7.0,8.0,94,0.00,,,0.00,Weather View 32 v70,2013-12-03 08:58:00,
2013-12-03 03:59:00,47.0,45.2,29.90,North,1,6.0,8.0,94,0.00,,,0.00,Weather View 32 v70,2013-12-03 08:59:00,
2013-12-03 04:00:00,47.1,45.3,29.90,North,8,7.0,8.0,93,0.00,,,0.00,Weather View 32 v70,2013-12-03 09:00:00,
2013-12-03 04:02:00,47.0,45.1,29.90,North,7,6.0,8.0,93,0.00,,,0.00,Weather View 32 v70,2013-12-03 09:02:00,
2013-12-03 04:03:00,47.1,45.2,29.90,North,359,6.0,8.0,93,0.00,,,0.00,Weather View 32 v70,2013-12-03 09:03:00,
2013-12-03 04:04:00,47.1,45.2,29.90,NNE,13,8.0,8.0,93,0.00,,,0.00,Weather View 32 v70,2013-12-03 09:04:00,
2013-12-03 04:05:00,47.2,45.3,29.90,North,359,7.0,8.0,93,0.00,,,0.00,Weather View 32 v70,2013-12-03 09:05:00,
2013-12-03 04:08:00,47.2,45.2,29.90,North,11,7.0,8.0,93,0.00,,,0.00,Weather View 32 v70,2013-12-03 09:08:00,
2013-12-03 04:09:00,47.3,45.3,29.90,North,6,7.0,8.0,93,0.00,,,0.00,Weather View 32 v70,2013-12-03 09:09:00,
2013-12-03 04:10:00,47.4,45.3,29.90,NNE,14,6.0,8.0,93,0.00,,,0.00,Weather View 32 v70,2013-12-03 09:10:00,
2013-12-03 04:11:00,47.4,45.3,29.89,NNE,18,6.0,8.0,92,0.00,,,0.00,Weather View 32 v70,2013-12-03 09:11:00,
2013-12-03 04:13:00,47.5,45.3,29.90,NNE,20,8.0,8.0,92,0.00,,,0.00,Weather View 32 v70,2013-12-03 09:13:00,
2013-12-03 04:14:00,47.5,45.3,29.90,NNE,13,8.0,8.0,92,0.00,,,0.00,Weather View 32 v70,2013-12-03 09:14:00,
2013-12-03 04:15:00,47.4,45.1,29.90,NNE,15,6.0,8.0,92,0.00,,,0.00,Weather View 32 v70,2013-12-03 09:15:00,
2013-12-03 04:16:00,47.6,45.3,29.90,North,4,6.0,8.0,92,0.00,,,0.00,Weather View 32 v70,2013-12-03 09:16:00,
2013-12-03 04:18:00,47.6,45.2,29.90,NNE,20,7.0,8.0,91,0.00,,,0.00,Weather View 32 v70,2013-12-03 09:18:00,
2013-12-03 04:19:00,47.8,45.3,29.90,NNE,14,7.0,8.0,91,0.00,,,0.00,Weather View 32 v70,2013-12-03 09:19:00,
2013-12-03 04:20:00,47.9,45.3,29.90,North,3,7.0,8.0,91,0.00,,,0.00,Weather View 32 v70,2013-12-03 09:20:00,
2013-12-03 04:21:00,47.9,45.2,29.90,NNE,15,5.0,8.0,91,0.00,,,0.00,Weather View 32 v70,2013-12-03 09:21:00,
2013-12-03 04:23:00,48.0,45.2,29.90,North,356,5.0,8.0,90,0.00,,,0.00,Weather View 32 v70,2013-12-03 09:23:00,
2013-12-03 04:24:00,48.0,45.2,29.90,North,353,4.0,8.0,90,0.00,,,0.00,Weather View 32 v70,2013-12-03 09:24:00,
2013-12-03 04:25:00,48.0,45.1,29.91,North,3,6.0,8.0,90,0.00,,,0.00,Weather View 32 v70,2013-12-03 09:25:00,
2013-12-03 04:27:00,48.1,45.2,29.91,North,4,5.0,8.0,90,0.00,,,0.00,Weather View 32 v70,2013-12-03 09:27:00,
2013-12-03 04:29:00,48.2,45.2,29.91,North,354,6.0,8.0,89,0.00,,,0.00,Weather View 32 v70,2013-12-03 09:29:00,
2013-12-03 04:30:00,48.2,45.2,29.91,North,4,4.0,8.0,89,0.00,,,0.00,Weather View 32 v70,2013-12-03 09:30:00,
2013-12-03 04:31:00,48.1,45.1,29.91,North,359,6.0,8.0,89,0.00,,,0.00,Weather View 32 v70,2013-12-03 09:31:00,
2013-12-03 04:32:00,48.2,45.1,29.91,North,10,6.0,8.0,89,0.00,,,0.00,Weather View 32 v70,2013-12-03 09:32:00,
2013-12-03 04:34:00,48.2,45.1,29.91,North,356,5.0,8.0,89,0.00,,,0.00,Weather View 32 v70,2013-12-03 09:34:00,
2013-12-03 04:35:00,48.1,45.0,29.91,North,4,5.0,8.0,89,0.00,,,0.00,Weather View 32 v70,2013-12-03 09:35:00,
2013-12-03 04:36:00,48.1,44.9,29.91,North,6,5.0,8.0,89,0.00,,,0.00,Weather View 32 v70,2013-12-03 09:36:00,
2013-12-03 04:38:00,48.1,44.9,29.91,NNW,347,6.0,8.0,89,0.00,,,0.00,Weather View 32 v70,2013-12-03 09:38:00,
2013-12-03 04:39:00,48.1,44.9,29.91,North,353,6.0,8.0,89,0.00,,,0.00,Weather View 32 v70,2013-12-03 09:39:00,
2013-12-03 04:40:00,48.1,44.9,29.91,North,357,6.0,8.0,89,0.00,,,0.00,Weather View 32 v70,2013-12-03 09:40:00,
2013-12-03 04:42:00,48.1,44.9,29.91,North,354,5.0,8.0,89,0.00,,,0.00,Weather View 32 v70,2013-12-03 09:42:00,
2013-12-03 04:43:00,48.1,44.9,29.91,NNW,342,4.0,8.0,89,0.00,,,0.00,Weather View 32 v70,2013-12-03 09:43:00,
2013-12-03 04:44:00,48.2,45.0,29.91,NNW,340,4.0,8.0,89,0.00,,,0.00,Weather View 32 v70,2013-12-03 09:44:00,
2013-12-03 04:45:00,48.1,44.9,29.91,NNW,347,4.0,8.0,89,0.00,,,0.00,Weather View 32 v70,2013-12-03 09:45:00,
2013-12-03 04:46:00,48.1,44.9,29.91,North,357,1.0,8.0,89,0.00,,,0.00,Weather View 32 v70,2013-12-03 09:46:00,
2013-12-03 04:47:00,48.1,44.9,29.91,North,357,0.0,8.0,89,0.00,,,0.00,Weather View 32 v70,2013-12-03 09:47:00,
2013-12-03 04:48:00,48.1,44.9,29.91,North,357,0.0,8.0,89,0.00,,,0.00,Weather View 32 v70,2013-12-03 09:48:00,
2013-12-03 04:49:00,48.1,44.9,29.91,North,357,0.0,8.0,89,0.00,,,0.00,Weather View 32 v70,2013-12-03 09:49:00,
2013-12-03 04:50:00,48.0,44.8,29.91,North,357,0.0,8.0,89,0.00,,,0.00,Weather View 32 v70,2013-12-03 09:50:00,
2013-12-03 04:51:00,48.0,44.8,29.91,North,357,0.0,8.0,89,0.00,,,0.00,Weather View 32 v70,2013-12-03 09:51:00,
2013-12-03 04:52:00,47.9,44.7,29.92,North,357,0.0,8.0,89,0.00,,,0.00,Weather View 32 v70,2013-12-03 09:52:00,
2013-12-03 04:54:00,47.8,44.7,29.92,North,357,0.0,8.0,89,0.00,,,0.00,Weather View 32 v70,2013-12-03 09:54:00,
2013-12-03 04:55:00,47.8,44.7,29.92,North,357,0.0,8.0,89,0.00,,,0.00,Weather View 32 v70,2013-12-03 09:55:00,
2013-12-03 04:56:00,47.8,44.7,29.92,North,357,0.0,8.0,89,0.00,,,0.00,Weather View 32 v70,2013-12-03 09:56:00,
2013-12-03 04:57:00,47.7,44.6,29.92,North,357,0.0,8.0,89,0.00,,,0.00,Weather View 32 v70,2013-12-03 09:57:00,
2013-12-03 05:00:00,47.6,44.5,29.92,NNW,342,3.0,8.0,89,0.00,,,0.00,Weather View 32 v70,2013-12-03 10:00:00,
2013-12-03 05:01:00,47.5,44.4,29.92,North,354,4.0,8.0,89,0.00,,,0.00,Weather View 32 v70,2013-12-03 10:01:00,
2013-12-03 05:03:00,47.5,44.5,29.92,North,357,3.0,8.0,89,0.00,,,0.00,Weather View 32 v70,2013-12-03 10:03:00,
2013-12-03 05:05:00,47.4,44.5,29.91,North,350,3.0,8.0,90,0.00,,,0.00,Weather View 32 v70,2013-12-03 10:05:00,
2013-12-03 05:06:00,47.4,44.5,29.91,North,6,3.0,8.0,90,0.00,,,0.00,Weather View 32 v70,2013-12-03 10:06:00,
2013-12-03 05:08:00,47.2,44.4,29.91,North,0,2.0,8.0,90,0.00,,,0.00,Weather View 32 v70,2013-12-03 10:08:00,
2013-12-03 05:10:00,47.1,44.3,29.91,North,7,3.0,8.0,90,0.00,,,0.00,Weather View 32 v70,2013-12-03 10:10:00,
2013-12-03 05:11:00,47.1,44.3,29.91,NNE,24,2.0,8.0,90,0.00,,,0.00,Weather View 32 v70,2013-12-03 10:11:00,
2013-12-03 05:13:00,47.0,44.3,29.92,NNE,21,3.0,8.0,90,0.00,,,0.00,Weather View 32 v70,2013-12-03 10:13:00,
2013-12-03 05:15:00,47.0,44.3,29.91,North,8,4.0,8.0,90,0.00,,,0.00,Weather View 32 v70,2013-12-03 10:15:00,
2013-12-03 05:16:00,47.0,44.4,29.91,North,11,4.0,8.0,91,0.00,,,0.00,Weather View 32 v70,2013-12-03 10:16:00,
2013-12-03 05:17:00,46.9,44.3,29.92,North,10,4.0,8.0,91,0.00,,,0.00,Weather View 32 v70,2013-12-03 10:17:00,
2013-12-03 05:19:00,47.0,44.4,29.92,NNE,17,4.0,8.0,91,0.00,,,0.00,Weather View 32 v70,2013-12-03 10:19:00,
2013-12-03 05:20:00,46.9,44.4,29.92,North,7,4.0,8.0,91,0.00,,,0.00,Weather View 32 v70,2013-12-03 10:20:00,
2013-12-03 05:21:00,47.0,44.5,29.92,North,11,5.0,8.0,91,0.00,,,0.00,Weather View 32 v70,2013-12-03 10:21:00,
2013-12-03 05:22:00,47.1,44.5,29.92,North,352,4.0,8.0,91,0.00,,,0.00,Weather View 32 v70,2013-12-03 10:22:00,
2013-12-03 05:25:00,47.3,44.7,29.92,NNE,18,5.0,7.0,91,0.00,,,0.00,Weather View 32 v70,2013-12-03 10:25:00,
2013-12-03 05:26:00,47.3,44.7,29.92,North,6,5.0,7.0,91,0.00,,,0.00,Weather View 32 v70,2013-12-03 10:26:00,
2013-12-03 05:27:00,47.4,44.7,29.92,NNE,15,5.0,7.0,90,0.00,,,0.00,Weather View 32 v70,2013-12-03 10:27:00,
2013-12-03 05:30:00,47.5,44.7,29.92,North,11,5.0,7.0,90,0.00,,,0.00,Weather View 32 v70,2013-12-03 10:30:00,
2013-12-03 05:31:00,47.5,44.7,29.92,North,10,5.0,7.0,90,0.00,,,0.00,Weather View 32 v70,2013-12-03 10:31:00,
2013-12-03 05:32:00,47.5,44.6,29.92,NNE,14,5.0,7.0,90,0.00,,,0.00,Weather View 32 v70,2013-12-03 10:32:00,
2013-12-03 05:35:00,47.4,44.4,29.92,NNE,14,5.0,7.0,89,0.00,,,0.00,Weather View 32 v70,2013-12-03 10:35:00,
2013-12-03 05:36:00,47.5,44.5,29.92,NNE,25,3.0,7.0,89,0.00,,,0.00,Weather View 32 v70,2013-12-03 10:36:00,
2013-12-03 05:37:00,47.5,44.5,29.92,NNE,18,4.0,7.0,89,0.00,,,0.00,Weather View 32 v70,2013-12-03 10:37:00,
2013-12-03 05:38:00,47.5,44.5,29.92,North,11,4.0,7.0,89,0.00,,,0.00,Weather View 32 v70,2013-12-03 10:38:00,
2013-12-03 05:40:00,47.4,44.4,29.92,NNE,23,4.0,7.0,89,0.00,,,0.00,Weather View 32 v70,2013-12-03 10:40:00,
2013-12-03 05:41:00,47.3,44.3,29.92,NNE,27,5.0,6.0,89,0.00,,,0.00,Weather View 32 v70,2013-12-03 10:41:00,
2013-12-03 05:42:00,47.4,44.4,29.92,NNE,21,5.0,6.0,89,0.00,,,0.00,Weather View 32 v70,2013-12-03 10:42:00,
2013-12-03 05:43:00,47.3,44.3,29.92,NNE,21,6.0,6.0,89,0.00,,,0.00,Weather View 32 v70,2013-12-03 10:43:00,
2013-12-03 05:45:00,47.4,44.4,29.92,NNE,27,6.0,6.0,89,0.00,,,0.00,Weather View 32 v70,2013-12-03 10:45:00,
2013-12-03 05:46:00,47.4,44.4,29.92,NNE,30,5.0,6.0,89,0.00,,,0.00,Weather View 32 v70,2013-12-03 10:46:00,
2013-12-03 05:47:00,47.3,44.3,29.92,NNE,32,5.0,6.0,89,0.00,,,0.00,Weather View 32 v70,2013-12-03 10:47:00,
2013-12-03 05:48:00,47.3,44.3,29.92,NNE,31,5.0,6.0,89,0.00,,,0.00,Weather View 32 v70,2013-12-03 10:48:00,
2013-12-03 05:50:00,47.4,44.3,29.92,NNE,20,4.0,6.0,89,0.00,,,0.00,Weather View 32 v70,2013-12-03 10:50:00,
2013-12-03 05:51:00,47.4,44.3,29.92,NNE,18,5.0,6.0,89,0.00,,,0.00,Weather View 32 v70,2013-12-03 10:51:00,
2013-12-03 05:52:00,47.5,44.3,29.92,NNE,18,5.0,6.0,89,0.00,,,0.00,Weather View 32 v70,2013-12-03 10:52:00,
2013-12-03 05:53:00,47.5,44.3,29.92,NE,35,3.0,6.0,89,0.00,,,0.00,Weather View 32 v70,2013-12-03 10:53:00,
2013-12-03 05:55:00,47.5,44.2,29.93,NNE,18,5.0,6.0,88,0.00,,,0.00,Weather View 32 v70,2013-12-03 10:55:00,
2013-12-03 05:56:00,47.5,44.2,29.93,NNE,15,5.0,6.0,88,0.00,,,0.00,Weather View 32 v70,2013-12-03 10:56:00,
2013-12-03 05:58:00,47.5,44.2,29.93,NNE,13,4.0,6.0,88,0.00,,,0.00,Weather View 32 v70,2013-12-03 10:58:00,
2013-12-03 06:01:00,47.7,44.3,29.93,North,10,4.0,6.0,88,0.00,,,0.00,Weather View 32 v70,2013-12-03 11:01:00,
2013-12-03 06:02:00,47.7,44.3,29.93,NNE,13,4.0,6.0,88,0.00,,,0.00,Weather View 32 v70,2013-12-03 11:02:00,
2013-12-03 06:03:00,47.8,44.3,29.93,NNE,15,4.0,6.0,88,0.00,,,0.00,Weather View 32 v70,2013-12-03 11:03:00,
2013-12-03 06:04:00,47.8,44.3,29.93,North,10,5.0,6.0,88,0.00,,,0.00,Weather View 32 v70,2013-12-03 11:04:00,
2013-12-03 06:06:00,47.9,44.3,29.93,NNE,17,5.0,6.0,87,0.00,,,0.00,Weather View 32 v70,2013-12-03 11:06:00,
2013-12-03 06:07:00,47.9,44.3,29.93,NNE,14,6.0,6.0,87,0.00,,,0.00,Weather View 32 v70,2013-12-03 11:07:00,
2013-12-03 06:08:00,48.0,44.3,29.93,NNE,13,6.0,6.0,87,0.00,,,0.00,Weather View 32 v70,2013-12-03 11:08:00,
2013-12-03 06:10:00,48.0,44.2,29.93,NNE,17,5.0,6.0,87,0.00,,,0.00,Weather View 32 v70,2013-12-03 11:10:00,
2013-12-03 06:11:00,48.2,44.4,29.93,NNE,15,5.0,6.0,87,0.00,,,0.00,Weather View 32 v70,2013-12-03 11:11:00,
2013-12-03 06:12:00,48.1,44.2,29.93,North,11,6.0,7.0,86,0.00,,,0.00,Weather View 32 v70,2013-12-03 11:12:00,
2013-12-03 06:13:00,48.0,44.2,29.93,NNE,15,6.0,6.0,87,0.00,,,0.00,Weather View 32 v70,2013-12-03 11:13:00,
2013-12-03 06:14:00,48.2,44.3,29.93,NNE,18,6.0,7.0,86,0.00,,,0.00,Weather View 32 v70,2013-12-03 11:14:00,
2013-12-03 06:16:00,48.2,44.2,29.93,NNE,17,5.0,7.0,86,0.00,,,0.00,Weather View 32 v70,2013-12-03 11:16:00,
2013-12-03 06:17:00,48.2,44.1,29.93,NNE,23,5.0,7.0,86,0.00,,,0.00,Weather View 32 v70,2013-12-03 11:17:00,
2013-12-03 06:18:00,48.2,44.1,29.93,NNE,21,4.0,7.0,86,0.00,,,0.00,Weather View 32 v70,2013-12-03 11:18:00,
2013-12-03 06:20:00,48.2,44.0,29.93,NNE,13,5.0,7.0,86,0.00,,,0.00,Weather View 32 v70,2013-12-03 11:20:00,
2013-12-03 06:21:00,48.2,44.0,29.93,North,11,4.0,7.0,85,0.00,,,0.00,Weather View 32 v70,2013-12-03 11:21:00,
2013-12-03 06:22:00,48.2,44.0,29.93,NNE,17,4.0,7.0,85,0.00,,,0.00,Weather View 32 v70,2013-12-03 11:22:00,
2013-12-03 06:24:00,48.2,44.0,29.93,NNE,13,3.0,7.0,85,0.00,,,0.00,Weather View 32 v70,2013-12-03 11:24:00,
2013-12-03 06:25:00,48.2,44.0,29.93,NNE,15,2.0,7.0,85,0.00,,,0.00,Weather View 32 v70,2013-12-03 11:25:00,
2013-12-03 06:26:00,48.1,43.9,29.93,NNE,20,2.0,7.0,85,0.00,,,0.00,Weather View 32 v70,2013-12-03 11:26:00,
2013-12-03 06:27:00,48.1,44.0,29.93,North,10,1.0,7.0,86,0.00,,,0.00,Weather View 32 v70,2013-12-03 11:27:00,
2013-12-03 06:28:00,48.0,43.9,29.93,NNE,13,0.0,7.0,86,0.00,,,0.00,Weather View 32 v70,2013-12-03 11:28:00,
2013-12-03 06:29:00,48.0,43.9,29.93,NNE,13,0.0,7.0,86,0.00,,,0.00,Weather View 32 v70,2013-12-03 11:29:00,
2013-12-03 06:30:00,48.0,43.9,29.93,NNE,13,0.0,7.0,86,0.00,,,0.00,Weather View 32 v70,2013-12-03 11:30:00,
2013-12-03 06:31:00,48.0,43.9,29.94,NNE,13,0.0,7.0,86,0.00,,,0.00,Weather View 32 v70,2013-12-03 11:31:00,
2013-12-03 06:32:00,47.9,43.8,29.94,NNE,13,0.0,7.0,86,0.00,,,0.00,Weather View 32 v70,2013-12-03 11:32:00,
2013-12-03 06:33:00,47.9,43.8,29.94,NNE,13,0.0,7.0,86,0.00,,,0.00,Weather View 32 v70,2013-12-03 11:33:00,
2013-12-03 06:34:00,47.8,43.7,29.94,NNE,13,0.0,7.0,86,0.00,,,0.00,Weather View 32 v70,2013-12-03 11:34:00,
2013-12-03 06:35:00,47.8,43.7,29.94,NNE,13,0.0,7.0,86,0.00,,,0.00,Weather View 32 v70,2013-12-03 11:35:00,
2013-12-03 06:36:00,47.8,43.7,29.94,NNE,13,0.0,7.0,86,0.00,,,0.00,Weather View 32 v70,2013-12-03 11:36:00,
2013-12-03 06:37:00,47.7,43.7,29.94,NNE,13,0.0,7.0,86,0.00,,,0.00,Weather View 32 v70,2013-12-03 11:37:00,
2013-12-03 06:38:00,47.8,43.8,29.94,North,7,5.0,7.0,86,0.00,,,0.00,Weather View 32 v70,2013-12-03 11:38:00,
2013-12-03 06:39:00,47.7,43.7,29.94,NNE,15,5.0,7.0,86,0.00,,,0.00,Weather View 32 v70,2013-12-03 11:39:00,
2013-12-03 06:41:00,47.8,43.7,29.94,NNE,20,6.0,7.0,86,0.00,,,0.00,Weather View 32 v70,2013-12-03 11:41:00,
2013-12-03 06:42:00,47.8,43.7,29.94,NNE,13,6.0,7.0,86,0.00,,,0.00,Weather View 32 v70,2013-12-03 11:42:00,
2013-12-03 06:43:00,48.1,44.0,29.94,NNE,15,6.0,7.0,86,0.00,,,0.00,Weather View 32 v70,2013-12-03 11:43:00,
2013-12-03 06:44:00,48.2,44.0,29.94,NNE,13,6.0,7.0,85,0.00,,,0.00,Weather View 32 v70,2013-12-03 11:44:00,
2013-12-03 06:46:00,48.4,44.0,29.94,NNE,14,6.0,7.0,85,0.00,,,0.00,Weather View 32 v70,2013-12-03 11:46:00,
2013-12-03 06:47:00,48.4,44.0,29.94,NNE,14,6.0,7.0,85,0.00,,,0.00,Weather View 32 v70,2013-12-03 11:47:00,
2013-12-03 06:48:00,48.4,44.0,29.94,NNE,14,6.0,7.0,85,0.00,,,0.00,Weather View 32 v70,2013-12-03 11:48:00,
2013-12-03 06:49:00,48.5,44.0,29.95,NNE,17,6.0,7.0,84,0.00,,,0.00,Weather View 32 v70,2013-12-03 11:49:00,
2013-12-03 06:50:00,48.5,44.0,29.95,North,7,6.0,7.0,84,0.00,,,0.00,Weather View 32 v70,2013-12-03 11:50:00,
2013-12-03 06:52:00,48.6,43.9,29.95,North,6,6.0,7.0,84,0.00,,,0.00,Weather View 32 v70,2013-12-03 11:52:00,
2013-12-03 06:53:00,48.6,43.9,29.95,North,4,6.0,7.0,84,0.00,,,0.00,Weather View 32 v70,2013-12-03 11:53:00,
2013-12-03 06:54:00,48.7,43.9,29.95,North,3,6.0,7.0,84,0.00,,,0.00,Weather View 32 v70,2013-12-03 11:54:00,
2013-12-03 06:55:00,48.7,43.9,29.95,North,3,6.0,7.0,83,0.00,,,0.00,Weather View 32 v70,2013-12-03 11:55:00,
2013-12-03 06:57:00,48.8,43.9,29.95,North,10,7.0,7.0,83,0.00,,,0.00,Weather View 32 v70,2013-12-03 11:57:00,
2013-12-03 06:58:00,48.8,43.9,29.95,North,4,7.0,7.0,83,0.00,,,0.00,Weather View 32 v70,2013-12-03 11:58:00,
2013-12-03 06:59:00,48.8,43.9,29.95,North,359,6.0,7.0,83,0.00,,,0.00,Weather View 32 v70,2013-12-03 11:59:00,
2013-12-03 07:00:00,48.7,43.8,29.95,North,8,7.0,8.0,83,0.00,,,0.00,Weather View 32 v70,2013-12-03 12:00:00,
2013-12-03 07:02:00,48.8,43.8,29.95,North,1,6.0,8.0,83,0.00,,,0.00,Weather View 32 v70,2013-12-03 12:02:00,
2013-12-03 07:03:00,48.7,43.7,29.95,North,11,6.0,8.0,83,0.00,,,0.00,Weather View 32 v70,2013-12-03 12:03:00,
2013-12-03 07:04:00,48.7,43.7,29.95,NNE,18,5.0,8.0,83,0.00,,,0.00,Weather View 32 v70,2013-12-03 12:04:00,
2013-12-03 07:05:00,48.8,43.8,29.96,North,4,6.0,8.0,83,0.00,,,0.00,Weather View 32 v70,2013-12-03 12:05:00,
2013-12-03 07:07:00,48.7,43.7,29.95,North,10,6.0,8.0,83,0.00,,,0.00,Weather View 32 v70,2013-12-03 12:07:00,
2013-12-03 07:08:00,48.7,43.7,29.96,North,4,6.0,8.0,83,0.00,,,0.00,Weather View 32 v70,2013-12-03 12:08:00,
2013-12-03 07:09:00,48.5,43.5,29.96,North,10,6.0,8.0,83,0.00,,,0.00,Weather View 32 v70,2013-12-03 12:09:00,
2013-12-03 07:10:00,48.5,43.5,29.96,North,1,6.0,8.0,83,0.00,,,0.00,Weather View 32 v70,2013-12-03 12:10:00,
2013-12-03 07:12:00,48.5,43.5,29.96,NNE,21,5.0,8.0,83,0.00,,,0.00,Weather View 32 v70,2013-12-03 12:12:00,
2013-12-03 07:13:00,48.5,43.5,29.96,NNE,27,5.0,8.0,83,0.00,,,0.00,Weather View 32 v70,2013-12-03 12:13:00,
2013-12-03 07:14:00,48.5,43.5,29.96,North,6,5.0,8.0,83,0.00,,,0.00,Weather View 32 v70,2013-12-03 12:14:00,
2013-12-03 07:16:00,48.5,43.5,29.96,NNE,24,6.0,8.0,83,0.00,,,0.00,Weather View 32 v70,2013-12-03 12:16:00,
2013-12-03 07:17:00,48.4,43.4,29.96,NNE,18,7.0,8.0,83,0.00,,,0.00,Weather View 32 v70,2013-12-03 12:17:00,
2013-12-03 07:18:00,48.4,43.4,29.96,NNE,17,6.0,8.0,83,0.00,,,0.00,Weather View 32 v70,2013-12-03 12:18:00,
2013-12-03 07:19:00,48.5,43.6,29.96,NNE,17,7.0,8.0,83,0.00,,,0.00,Weather View 32 v70,2013-12-03 12:19:00,
2013-12-03 07:21:00,48.5,43.5,29.96,NNE,18,7.0,8.0,83,0.00,,,0.00,Weather View 32 v70,2013-12-03 12:21:00,
2013-12-03 07:23:00,48.5,43.4,29.96,North,7,6.0,8.0,83,0.00,,,0.00,Weather View 32 v70,2013-12-03 12:23:00,
2013-12-03 07:24:00,48.7,43.6,29.96,NNE,23,6.0,8.0,83,0.00,,,0.00,Weather View 32 v70,2013-12-03 12:24:00,
2013-12-03 07:26:00,48.7,43.5,29.96,NNE,18,6.0,8.0,82,0.00,,,0.00,Weather View 32 v70,2013-12-03 12:26:00,
2013-12-03 07:28:00,48.7,43.5,29.96,NNE,13,5.0,8.0,82,0.00,,,0.00,Weather View 32 v70,2013-12-03 12:28:00,
2013-12-03 07:29:00,48.8,43.6,29.96,NNE,15,5.0,8.0,82,0.00,,,0.00,Weather View 32 v70,2013-12-03 12:29:00,
2013-12-03 07:30:00,48.9,43.6,29.96,NNE,15,6.0,8.0,82,0.00,,,0.00,Weather View 32 v70,2013-12-03 12:30:00,
2013-12-03 07:31:00,48.9,43.6,29.96,NNE,17,6.0,8.0,82,0.00,,,0.00,Weather View 32 v70,2013-12-03 12:31:00,
2013-12-03 07:33:00,49.0,43.6,29.96,NNE,17,5.0,8.0,82,0.00,,,0.00,Weather View 32 v70,2013-12-03 12:33:00,
2013-12-03 07:34:00,49.0,43.6,29.96,NNE,13,5.0,8.0,82,0.00,,,0.00,Weather View 32 v70,2013-12-03 12:34:00,
2013-12-03 07:35:00,49.0,43.6,29.96,NNE,14,6.0,8.0,82,0.00,,,0.00,Weather View 32 v70,2013-12-03 12:35:00,
2013-12-03 07:37:00,48.9,43.5,29.97,NNE,17,5.0,8.0,82,0.00,,,0.00,Weather View 32 v70,2013-12-03 12:37:00,
2013-12-03 07:38:00,49.1,43.7,29.97,NNE,15,5.0,8.0,82,0.00,,,0.00,Weather View 32 v70,2013-12-03 12:38:00,
2013-12-03 07:39:00,49.1,43.7,29.97,NNE,17,5.0,8.0,82,0.00,,,0.00,Weather View 32 v70,2013-12-03 12:39:00,
2013-12-03 07:40:00,49.0,43.6,29.97,NNE,17,3.0,8.0,82,0.00,,,0.00,Weather View 32 v70,2013-12-03 12:40:00,
2013-12-03 07:42:00,49.1,43.7,29.97,North,6,3.0,8.0,82,0.00,,,0.00,Weather View 32 v70,2013-12-03 12:42:00,
2013-12-03 07:43:00,49.0,43.6,29.97,North,6,0.0,8.0,82,0.00,,,0.00,Weather View 32 v70,2013-12-03 12:43:00,
2013-12-03 07:44:00,49.0,43.7,29.97,North,6,0.0,8.0,82,0.00,,,0.00,Weather View 32 v70,2013-12-03 12:44:00,
2013-12-03 07:45:00,49.0,43.7,29.97,North,6,0.0,8.0,82,0.00,,,0.00,Weather View 32 v70,2013-12-03 12:45:00,
2013-12-03 07:47:00,49.0,43.8,29.98,North,6,0.0,8.0,82,0.00,,,0.00,Weather View 32 v70,2013-12-03 12:47:00,
2013-12-03 07:48:00,48.9,43.7,29.98,North,6,0.0,8.0,82,0.00,,,0.00,Weather View 32 v70,2013-12-03 12:48:00,
2013-12-03 07:49:00,48.8,43.6,29.98,North,6,0.0,8.0,82,0.00,,,0.00,Weather View 32 v70,2013-12-03 12:49:00,
2013-12-03 07:50:00,48.9,43.7,29.98,North,6,0.0,8.0,82,0.00,,,0.00,Weather View 32 v70,2013-12-03 12:50:00,
2013-12-03 07:51:00,48.8,43.7,29.98,North,6,0.0,8.0,83,0.00,,,0.00,Weather View 32 v70,2013-12-03 12:51:00,
2013-12-03 07:53:00,48.7,43.7,29.97,North,6,0.0,8.0,83,0.00,,,0.00,Weather View 32 v70,2013-12-03 12:53:00,
2013-12-03 07:55:00,48.7,43.8,29.97,North,6,0.0,8.0,83,0.00,,,0.00,Weather View 32 v70,2013-12-03 12:55:00,
2013-12-03 07:56:00,48.7,43.8,29.97,North,6,0.0,8.0,83,0.00,,,0.00,Weather View 32 v70,2013-12-03 12:56:00,
2013-12-03 07:58:00,48.6,43.7,29.98,North,6,0.0,8.0,83,0.00,,,0.00,Weather View 32 v70,2013-12-03 12:58:00,
2013-12-03 07:59:00,48.6,43.7,29.98,North,6,0.0,8.0,83,0.00,,,0.00,Weather View 32 v70,2013-12-03 12:59:00,
2013-12-03 08:00:00,48.7,43.9,29.98,North,6,0.0,8.0,83,0.00,,,0.00,Weather View 32 v70,2013-12-03 13:00:00,
2013-12-03 08:02:00,48.7,43.9,29.98,North,6,0.0,7.0,83,0.00,,,0.00,Weather View 32 v70,2013-12-03 13:02:00,
2013-12-03 08:03:00,48.7,43.9,29.98,North,6,0.0,7.0,84,0.00,,,0.00,Weather View 32 v70,2013-12-03 13:03:00,
2013-12-03 08:04:00,48.7,43.9,29.98,North,6,0.0,7.0,84,0.00,,,0.00,Weather View 32 v70,2013-12-03 13:04:00,
2013-12-03 08:05:00,48.7,43.9,29.98,North,6,0.0,7.0,84,0.00,,,0.00,Weather View 32 v70,2013-12-03 13:05:00,
2013-12-03 08:07:00,49.0,44.2,29.98,North,6,0.0,7.0,84,0.00,,,0.00,Weather View 32 v70,2013-12-03 13:07:00,
2013-12-03 08:08:00,49.0,44.2,29.98,North,6,0.0,7.0,84,0.00,,,0.00,Weather View 32 v70,2013-12-03 13:08:00,
2013-12-03 08:09:00,49.2,44.5,29.98,North,6,0.0,7.0,84,0.00,,,0.00,Weather View 32 v70,2013-12-03 13:09:00,
2013-12-03 08:10:00,49.3,44.6,29.98,North,6,0.0,7.0,84,0.00,,,0.00,Weather View 32 v70,2013-12-03 13:10:00,
2013-12-03 08:13:00,49.5,44.7,29.98,North,6,0.0,7.0,84,0.00,,,0.00,Weather View 32 v70,2013-12-03 13:13:00,
2013-12-03 08:14:00,49.7,44.9,29.98,North,6,0.0,7.0,84,0.00,,,0.00,Weather View 32 v70,2013-12-03 13:14:00,
2013-12-03 08:15:00,49.9,45.2,29.98,North,6,0.0,7.0,84,0.00,,,0.00,Weather View 32 v70,2013-12-03 13:15:00,
2013-12-03 08:16:00,50.0,45.3,29.98,North,6,0.0,7.0,84,0.00,,,0.00,Weather View 32 v70,2013-12-03 13:16:00,
2013-12-03 08:18:00,50.5,45.8,29.98,North,6,0.0,7.0,84,0.00,,,0.00,Weather View 32 v70,2013-12-03 13:18:00,
2013-12-03 08:19:00,50.6,45.8,29.98,North,6,0.0,7.0,84,0.00,,,0.00,Weather View 32 v70,2013-12-03 13:19:00,
2013-12-03 08:20:00,50.8,45.9,29.98,North,6,0.0,7.0,83,0.00,,,0.00,Weather View 32 v70,2013-12-03 13:20:00,
2013-12-03 08:21:00,50.8,45.9,29.98,North,6,0.0,7.0,83,0.00,,,0.00,Weather View 32 v70,2013-12-03 13:21:00,
2013-12-03 08:23:00,51.1,46.1,29.98,North,6,0.0,7.0,83,0.00,,,0.00,Weather View 32 v70,2013-12-03 13:23:00,
2013-12-03 08:24:00,51.2,46.1,29.98,North,6,0.0,7.0,83,0.00,,,0.00,Weather View 32 v70,2013-12-03 13:24:00,
2013-12-03 08:25:00,51.3,46.2,29.98,North,6,0.0,7.0,83,0.00,,,0.00,Weather View 32 v70,2013-12-03 13:25:00,
2013-12-03 08:26:00,51.3,46.1,29.98,North,6,0.0,7.0,83,0.00,,,0.00,Weather View 32 v70,2013-12-03 13:26:00,
2013-12-03 08:27:00,51.4,46.2,29.98,North,6,0.0,7.0,82,0.00,,,0.00,Weather View 32 v70,2013-12-03 13:27:00,
2013-12-03 08:28:00,51.7,46.4,29.98,North,6,0.0,7.0,82,0.00,,,0.00,Weather View 32 v70,2013-12-03 13:28:00,
2013-12-03 08:29:00,51.7,46.4,29.98,North,6,0.0,7.0,82,0.00,,,0.00,Weather View 32 v70,2013-12-03 13:29:00,
2013-12-03 08:30:00,51.8,46.4,29.98,North,6,0.0,7.0,82,0.00,,,0.00,Weather View 32 v70,2013-12-03 13:30:00,
2013-12-03 08:31:00,52.0,46.6,29.98,North,6,0.0,7.0,82,0.00,,,0.00,Weather View 32 v70,2013-12-03 13:31:00,
2013-12-03 08:32:00,52.1,46.6,29.98,North,6,0.0,7.0,82,0.00,,,0.00,Weather View 32 v70,2013-12-03 13:32:00,
2013-12-03 08:34:00,52.4,46.9,29.98,North,6,0.0,6.0,82,0.00,,,0.00,Weather View 32 v70,2013-12-03 13:34:00,
2013-12-03 08:35:00,52.6,47.1,29.98,North,6,0.0,6.0,82,0.00,,,0.00,Weather View 32 v70,2013-12-03 13:35:00,
2013-12-03 08:36:00,52.8,47.3,29.98,North,6,0.0,6.0,82,0.00,,,0.00,Weather View 32 v70,2013-12-03 13:36:00,
2013-12-03 08:37:00,53.1,47.5,29.98,North,6,0.0,6.0,81,0.00,,,0.00,Weather View 32 v70,2013-12-03 13:37:00,
2013-12-03 08:39:00,53.5,47.8,29.98,North,6,0.0,5.0,81,0.00,,,0.00,Weather View 32 v70,2013-12-03 13:39:00,
2013-12-03 08:40:00,53.6,47.9,29.98,North,6,0.0,5.0,81,0.00,,,0.00,Weather View 32 v70,2013-12-03 13:40:00,
2013-12-03 08:41:00,53.8,48.0,29.98,North,6,0.0,4.0,81,0.00,,,0.00,Weather View 32 v70,2013-12-03 13:41:00,
2013-12-03 08:42:00,54.0,48.1,29.98,North,6,0.0,3.0,80,0.00,,,0.00,Weather View 32 v70,2013-12-03 13:42:00,
2013-12-03 08:44:00,54.3,48.3,29.98,North,6,0.0,0.0,80,0.00,,,0.00,Weather View 32 v70,2013-12-03 13:44:00,
2013-12-03 08:45:00,54.3,48.2,29.98,North,6,0.0,0.0,80,0.00,,,0.00,Weather View 32 v70,2013-12-03 13:45:00,
2013-12-03 08:46:00,54.3,48.2,29.98,North,6,0.0,0.0,80,0.00,,,0.00,Weather View 32 v70,2013-12-03 13:46:00,
2013-12-03 08:47:00,54.4,48.4,29.98,North,6,0.0,0.0,80,0.00,,,0.00,Weather View 32 v70,2013-12-03 13:47:00,
2013-12-03 08:49:00,54.5,48.6,29.99,North,6,0.0,0.0,81,0.00,,,0.00,Weather View 32 v70,2013-12-03 13:49:00,
2013-12-03 08:50:00,54.5,48.7,29.99,North,6,0.0,0.0,81,0.00,,,0.00,Weather View 32 v70,2013-12-03 13:50:00,
2013-12-03 08:51:00,54.7,48.9,29.99,North,6,0.0,0.0,81,0.00,,,0.00,Weather View 32 v70,2013-12-03 13:51:00,
2013-12-03 08:52:00,54.8,49.1,29.99,North,6,0.0,0.0,81,0.00,,,0.00,Weather View 32 v70,2013-12-03 13:52:00,
2013-12-03 08:53:00,55.0,49.4,29.99,North,6,0.0,0.0,81,0.00,,,0.00,Weather View 32 v70,2013-12-03 13:53:00,
2013-12-03 08:54:00,55.3,49.7,29.99,North,6,0.0,0.0,81,0.00,,,0.00,Weather View 32 v70,2013-12-03 13:54:00,
2013-12-03 08:55:00,55.3,49.7,29.99,North,6,0.0,0.0,81,0.00,,,0.00,Weather View 32 v70,2013-12-03 13:55:00,
2013-12-03 08:56:00,55.5,49.8,29.99,East,83,6.0,0.0,81,0.00,,,0.00,Weather View 32 v70,2013-12-03 13:56:00,
2013-12-03 08:57:00,55.5,49.8,29.99,East,83,5.0,6.0,81,0.00,,,0.00,Weather View 32 v70,2013-12-03 13:57:00,
2013-12-03 08:58:00,55.5,49.6,29.99,East,98,6.0,7.0,81,0.00,,,0.00,Weather View 32 v70,2013-12-03 13:58:00,
2013-12-03 09:00:00,55.4,49.5,29.99,East,96,5.0,7.0,81,0.00,,,0.00,Weather View 32 v70,2013-12-03 14:00:00,
2013-12-03 09:02:00,55.3,49.7,29.99,ESE,117,2.0,7.0,81,0.00,,,0.00,Weather View 32 v70,2013-12-03 14:02:00,
2013-12-03 09:04:00,55.2,49.9,29.99,East,91,3.0,7.0,82,0.00,,,0.00,Weather View 32 v70,2013-12-03 14:04:00,
2013-12-03 09:05:00,55.1,49.9,30.00,ESE,117,3.0,7.0,83,0.00,,,0.00,Weather View 32 v70,2013-12-03 14:05:00,
2013-12-03 09:06:00,55.1,50.0,29.99,ESE,122,2.0,7.0,83,0.00,,,0.00,Weather View 32 v70,2013-12-03 14:06:00,
2013-12-03 09:07:00,55.1,50.1,30.00,ESE,115,3.0,7.0,83,0.00,,,0.00,Weather View 32 v70,2013-12-03 14:07:00,
2013-12-03 09:09:00,55.0,50.1,30.00,ESE,107,3.0,7.0,84,0.00,,,0.00,Weather View 32 v70,2013-12-03 14:09:00,
2013-12-03 09:10:00,54.9,50.1,30.00,East,100,3.0,7.0,84,0.00,,,0.00,Weather View 32 v70,2013-12-03 14:10:00,
2013-12-03 09:11:00,54.9,50.1,30.00,East,98,2.0,7.0,84,0.00,,,0.00,Weather View 32 v70,2013-12-03 14:11:00,
2013-12-03 09:12:00,54.9,50.2,30.00,East,97,3.0,7.0,84,0.00,,,0.00,Weather View 32 v70,2013-12-03 14:12:00,
2013-12-03 09:14:00,55.0,50.5,30.00,East,89,3.0,7.0,85,0.00,,,0.00,Weather View 32 v70,2013-12-03 14:14:00,
2013-12-03 09:15:00,55.0,50.5,30.00,East,100,1.0,7.0,85,0.00,,,0.00,Weather View 32 v70,2013-12-03 14:15:00,
2013-12-03 09:16:00,55.1,50.6,30.00,East,100,0.0,7.0,85,0.00,,,0.00,Weather View 32 v70,2013-12-03 14:16:00,
2013-12-03 09:17:00,55.2,50.8,30.00,East,84,4.0,7.0,85,0.00,,,0.00,Weather View 32 v70,2013-12-03 14:17:00,
2013-12-03 09:19:00,55.5,51.1,30.00,East,83,4.0,7.0,85,0.00,,,0.00,Weather View 32 v70,2013-12-03 14:19:00,
2013-12-03 09:20:00,55.4,51.0,30.00,East,83,4.0,7.0,85,0.00,,,0.00,Weather View 32 v70,2013-12-03 14:20:00,
2013-12-03 09:21:00,55.6,51.2,30.00,East,86,4.0,7.0,85,0.00,,,0.00,Weather View 32 v70,2013-12-03 14:21:00,
2013-12-03 09:23:00,55.7,51.1,30.00,East,86,3.0,7.0,85,0.00,,,0.00,Weather View 32 v70,2013-12-03 14:23:00,
2013-12-03 09:24:00,55.9,51.3,30.00,East,86,3.0,7.0,84,0.00,,,0.00,Weather View 32 v70,2013-12-03 14:24:00,
2013-12-03 09:25:00,55.9,51.3,30.00,East,83,4.0,7.0,84,0.00,,,0.00,Weather View 32 v70,2013-12-03 14:25:00,
2013-12-03 09:26:00,56.1,51.4,30.00,East,90,3.0,7.0,84,0.00,,,0.00,Weather View 32 v70,2013-12-03 14:26:00,
2013-12-03 09:28:00,56.2,51.5,30.00,ENE,58,0.0,7.0,84,0.00,,,0.00,Weather View 32 v70,2013-12-03 14:28:00,
2013-12-03 09:30:00,56.3,51.6,30.00,ENE,69,0.0,7.0,84,0.00,,,0.00,Weather View 32 v70,2013-12-03 14:30:00,
2013-12-03 09:31:00,56.3,51.6,30.00,ENE,69,0.0,7.0,84,0.00,,,0.00,Weather View 32 v70,2013-12-03 14:31:00,
2013-12-03 09:32:00,56.3,51.6,30.00,ENE,69,0.0,7.0,84,0.00,,,0.00,Weather View 32 v70,2013-12-03 14:32:00,
2013-12-03 09:33:00,56.3,51.7,30.00,ENE,69,0.0,7.0,85,0.00,,,0.00,Weather View 32 v70,2013-12-03 14:33:00,
2013-12-03 09:35:00,56.2,51.7,29.99,ENE,69,0.0,7.0,85,0.00,,,0.00,Weather View 32 v70,2013-12-03 14:35:00,
2013-12-03 09:36:00,56.3,51.8,29.99,East,84,2.0,7.0,85,0.00,,,0.00,Weather View 32 v70,2013-12-03 14:36:00,
2013-12-03 09:37:00,56.3,51.8,29.99,ENE,70,3.0,7.0,85,0.00,,,0.00,Weather View 32 v70,2013-12-03 14:37:00,
2013-12-03 09:38:00,56.3,51.8,29.99,East,90,3.0,7.0,85,0.00,,,0.00,Weather View 32 v70,2013-12-03 14:38:00,
2013-12-03 09:40:00,56.5,52.1,29.99,ENE,73,4.0,7.0,85,0.00,,,0.00,Weather View 32 v70,2013-12-03 14:40:00,
2013-12-03 09:41:00,56.4,51.9,30.00,ENE,63,3.0,7.0,85,0.00,,,0.00,Weather View 32 v70,2013-12-03 14:41:00,
2013-12-03 09:42:00,56.6,52.1,30.00,ENE,70,3.0,7.0,85,0.00,,,0.00,Weather View 32 v70,2013-12-03 14:42:00,
2013-12-03 09:43:00,56.5,52.0,30.00,East,89,4.0,7.0,85,0.00,,,0.00,Weather View 32 v70,2013-12-03 14:43:00,
2013-12-03 09:44:00,56.5,52.0,30.00,ENE,72,2.0,7.0,85,0.00,,,0.00,Weather View 32 v70,2013-12-03 14:44:00,
2013-12-03 09:45:00,56.7,52.2,30.00,ENE,59,1.0,7.0,85,0.00,,,0.00,Weather View 32 v70,2013-12-03 14:45:00,
2013-12-03 09:46:00,56.7,52.2,30.00,ENE,59,1.0,7.0,85,0.00,,,0.00,Weather View 32 v70,2013-12-03 14:46:00,
2013-12-03 09:47:00,56.8,52.2,30.00,ENE,59,0.0,7.0,85,0.00,,,0.00,Weather View 32 v70,2013-12-03 14:47:00,
2013-12-03 09:48:00,56.8,52.2,30.00,ENE,59,0.0,7.0,85,0.00,,,0.00,Weather View 32 v70,2013-12-03 14:48:00,
2013-12-03 09:49:00,56.9,52.3,30.00,ENE,59,0.0,7.0,85,0.00,,,0.00,Weather View 32 v70,2013-12-03 14:49:00,
2013-12-03 09:51:00,56.9,52.2,30.00,ENE,59,0.0,7.0,84,0.00,,,0.00,Weather View 32 v70,2013-12-03 14:51:00,
2013-12-03 09:52:00,57.0,52.3,30.00,ENE,59,0.0,7.0,84,0.00,,,0.00,Weather View 32 v70,2013-12-03 14:52:00,
2013-12-03 09:53:00,57.0,52.3,30.00,ENE,59,0.0,7.0,84,0.00,,,0.00,Weather View 32 v70,2013-12-03 14:53:00,
2013-12-03 09:54:00,57.1,52.4,30.00,ENE,70,2.0,7.0,84,0.00,,,0.00,Weather View 32 v70,2013-12-03 14:54:00,
2013-12-03 09:55:00,57.1,52.4,30.00,NE,56,1.0,7.0,84,0.00,,,0.00,Weather View 32 v70,2013-12-03 14:55:00,
2013-12-03 09:56:00,57.1,52.4,30.00,ENE,77,2.0,7.0,84,0.00,,,0.00,Weather View 32 v70,2013-12-03 14:56:00,
2013-12-03 09:57:00,57.2,52.4,30.00,ENE,69,0.0,7.0,84,0.00,,,0.00,Weather View 32 v70,2013-12-03 14:57:00,
2013-12-03 09:58:00,57.1,52.3,30.00,ENE,69,0.0,7.0,84,0.00,,,0.00,Weather View 32 v70,2013-12-03 14:58:00,
2013-12-03 09:59:00,57.2,52.4,30.00,East,84,3.0,7.0,84,0.00,,,0.00,Weather View 32 v70,2013-12-03 14:59:00,
2013-12-03 10:00:00,57.2,52.4,30.00,East,90,4.0,5.0,84,0.00,,,0.00,Weather View 32 v70,2013-12-03 15:00:00,
2013-12-03 10:01:00,57.2,52.4,30.00,East,87,4.0,5.0,84,0.00,,,0.00,Weather View 32 v70,2013-12-03 15:01:00,
2013-12-03 10:03:00,57.2,52.4,30.00,East,86,4.0,5.0,84,0.00,,,0.00,Weather View 32 v70,2013-12-03 15:03:00,
2013-12-03 10:04:00,57.1,52.3,30.00,East,94,4.0,5.0,84,0.00,,,0.00,Weather View 32 v70,2013-12-03 15:04:00,
2013-12-03 10:06:00,57.2,52.4,30.00,East,84,5.0,5.0,84,0.00,,,0.00,Weather View 32 v70,2013-12-03 15:06:00,
2013-12-03 10:08:00,57.1,52.5,30.00,East,80,5.0,5.0,85,0.00,,,0.00,Weather View 32 v70,2013-12-03 15:08:00,
2013-12-03 10:09:00,57.2,52.6,30.00,East,83,4.0,5.0,85,0.00,,,0.00,Weather View 32 v70,2013-12-03 15:09:00,
2013-12-03 10:11:00,57.3,52.7,30.00,ENE,77,4.0,5.0,85,0.00,,,0.00,Weather View 32 v70,2013-12-03 15:11:00,
2013-12-03 10:13:00,57.4,52.7,30.00,ENE,69,0.0,5.0,84,0.00,,,0.00,Weather View 32 v70,2013-12-03 15:13:00,
2013-12-03 10:15:00,57.5,52.8,30.00,ENE,69,0.0,5.0,84,0.00,,,0.00,Weather View 32 v70,2013-12-03 15:15:00,
2013-12-03 10:16:00,57.5,52.9,30.00,ENE,69,0.0,5.0,85,0.00,,,0.00,Weather View 32 v70,2013-12-03 15:16:00,
2013-12-03 10:18:00,57.7,53.0,30.00,ENE,70,5.0,5.0,85,0.00,,,0.00,Weather View 32 v70,2013-12-03 15:18:00,
2013-12-03 10:20:00,57.7,53.0,30.00,East,94,5.0,6.0,84,0.00,,,0.00,Weather View 32 v70,2013-12-03 15:20:00,
2013-12-03 10:21:00,57.8,53.1,29.99,East,79,5.0,6.0,84,0.00,,,0.00,Weather View 32 v70,2013-12-03 15:21:00,
2013-12-03 10:23:00,57.9,53.2,30.00,ENE,58,4.0,6.0,84,0.00,,,0.00,Weather View 32 v70,2013-12-03 15:23:00,
2013-12-03 10:25:00,58.1,53.4,30.00,ENE,62,3.0,6.0,84,0.00,,,0.00,Weather View 32 v70,2013-12-03 15:25:00,
2013-12-03 10:26:00,58.2,53.4,30.00,East,94,3.0,6.0,84,0.00,,,0.00,Weather View 32 v70,2013-12-03 15:26:00,
2013-12-03 10:27:00,58.2,53.4,30.00,East,83,3.0,6.0,84,0.00,,,0.00,Weather View 32 v70,2013-12-03 15:27:00,
2013-12-03 10:28:00,58.2,53.3,30.00,East,90,2.0,6.0,84,0.00,,,0.00,Weather View 32 v70,2013-12-03 15:28:00,
2013-12-03 10:29:00,58.2,53.2,30.00,ENE,72,2.0,6.0,84,0.00,,,0.00,Weather View 32 v70,2013-12-03 15:29:00,
2013-12-03 10:30:00,58.2,53.3,30.00,ENE,66,2.0,6.0,84,0.00,,,0.00,Weather View 32 v70,2013-12-03 15:30:00,
2013-12-03 10:31:00,58.3,53.4,30.00,ENE,68,3.0,6.0,84,0.00,,,0.00,Weather View 32 v70,2013-12-03 15:31:00,
2013-12-03 10:32:00,58.3,53.4,30.00,ENE,75,2.0,6.0,84,0.00,,,0.00,Weather View 32 v70,2013-12-03 15:32:00,
2013-12-03 10:34:00,58.3,53.4,30.00,East,98,2.0,6.0,84,0.00,,,0.00,Weather View 32 v70,2013-12-03 15:34:00,
2013-12-03 10:35:00,58.2,53.3,30.00,South,169,0.0,6.0,84,0.00,,,0.00,Weather View 32 v70,2013-12-03 15:35:00,
2013-12-03 10:36:00,58.2,53.2,30.00,ESE,114,2.0,6.0,84,0.00,,,0.00,Weather View 32 v70,2013-12-03 15:36:00,
2013-12-03 10:37:00,58.2,53.3,30.00,ESE,104,1.0,6.0,84,0.00,,,0.00,Weather View 32 v70,2013-12-03 15:37:00,
2013-12-03 10:38:00,58.3,53.4,30.00,SE,129,1.0,6.0,84,0.00,,,0.00,Weather View 32 v70,2013-12-03 15:38:00,
2013-12-03 10:39:00,58.3,53.5,30.00,SE,129,0.0,6.0,84,0.00,,,0.00,Weather View 32 v70,2013-12-03 15:39:00,
2013-12-03 10:40:00,58.3,53.4,30.00,ESE,104,2.0,6.0,84,0.00,,,0.00,Weather View 32 v70,2013-12-03 15:40:00,
2013-12-03 10:42:00,58.4,53.5,30.00,ESE,108,0.0,6.0,84,0.00,,,0.00,Weather View 32 v70,2013-12-03 15:42:00,
2013-12-03 10:44:00,58.5,53.5,30.00,ENE,77,0.0,6.0,83,0.00,,,0.00,Weather View 32 v70,2013-12-03 15:44:00,
2013-12-03 10:45:00,58.4,53.4,30.00,East,96,0.0,6.0,83,0.00,,,0.00,Weather View 32 v70,2013-12-03 15:45:00,
2013-12-03 10:47:00,58.6,53.6,30.00,ENE,63,0.0,6.0,84,0.00,,,0.00,Weather View 32 v70,2013-12-03 15:47:00,
2013-12-03 10:49:00,58.9,53.8,30.00,ENE,63,0.0,6.0,83,0.00,,,0.00,Weather View 32 v70,2013-12-03 15:49:00,
2013-12-03 10:50:00,58.9,53.8,30.00,ENE,63,0.0,6.0,83,0.00,,,0.00,Weather View 32 v70,2013-12-03 15:50:00,
2013-12-03 10:51:00,59.0,53.7,30.00,ENE,63,0.0,6.0,83,0.00,,,0.00,Weather View 32 v70,2013-12-03 15:51:00,
2013-12-03 10:52:00,59.1,53.9,30.00,ENE,63,0.0,6.0,83,0.00,,,0.00,Weather View 32 v70,2013-12-03 15:52:00,
2013-12-03 10:54:00,59.3,53.9,30.00,ENE,63,0.0,6.0,82,0.00,,,0.00,Weather View 32 v70,2013-12-03 15:54:00,
2013-12-03 10:55:00,59.4,54.0,30.00,ENE,63,0.0,6.0,82,0.00,,,0.00,Weather View 32 v70,2013-12-03 15:55:00,
2013-12-03 10:56:00,59.5,54.0,30.00,ENE,63,0.0,6.0,82,0.00,,,0.00,Weather View 32 v70,2013-12-03 15:56:00,
2013-12-03 10:57:00,59.5,53.9,30.00,ENE,63,0.0,6.0,82,0.00,,,0.00,Weather View 32 v70,2013-12-03 15:57:00,
2013-12-03 10:59:00,59.6,53.9,30.00,ENE,63,0.0,6.0,82,0.00,,,0.00,Weather View 32 v70,2013-12-03 15:59:00,
2013-12-03 11:00:00,59.7,53.9,30.00,ENE,63,0.0,6.0,81,0.00,,,0.00,Weather View 32 v70,2013-12-03 16:00:00,
2013-12-03 11:01:00,59.7,53.9,30.00,ENE,63,0.0,6.0,81,0.00,,,0.00,Weather View 32 v70,2013-12-03 16:01:00,
2013-12-03 11:02:00,59.7,53.7,30.00,ENE,63,0.0,6.0,81,0.00,,,0.00,Weather View 32 v70,2013-12-03 16:02:00,
2013-12-03 11:03:00,59.8,53.8,30.00,ENE,63,0.0,6.0,81,0.00,,,0.00,Weather View 32 v70,2013-12-03 16:03:00,
2013-12-03 11:05:00,59.9,53.8,30.00,ENE,63,0.0,6.0,80,0.00,,,0.00,Weather View 32 v70,2013-12-03 16:05:00,
2013-12-03 11:06:00,59.6,53.4,30.00,ENE,63,0.0,6.0,80,0.00,,,0.00,Weather View 32 v70,2013-12-03 16:06:00,
2013-12-03 11:07:00,59.7,53.5,30.00,ENE,63,0.0,6.0,80,0.00,,,0.00,Weather View 32 v70,2013-12-03 16:07:00,
2013-12-03 11:08:00,59.6,53.4,30.00,ENE,63,0.0,6.0,80,0.00,,,0.00,Weather View 32 v70,2013-12-03 16:08:00,
2013-12-03 11:10:00,59.6,53.4,30.00,ENE,63,0.0,6.0,80,0.00,,,0.00,Weather View 32 v70,2013-12-03 16:10:00,
2013-12-03 11:11:00,59.7,53.5,30.00,ENE,63,0.0,6.0,80,0.00,,,0.00,Weather View 32 v70,2013-12-03 16:11:00,
2013-12-03 11:13:00,59.6,53.3,30.00,ENE,70,2.0,6.0,80,0.00,,,0.00,Weather View 32 v70,2013-12-03 16:13:00,
2013-12-03 11:15:00,59.6,53.3,30.00,ENE,76,2.0,6.0,80,0.00,,,0.00,Weather View 32 v70,2013-12-03 16:15:00,
2013-12-03 11:16:00,59.5,53.1,30.00,NE,44,1.0,6.0,79,0.00,,,0.00,Weather View 32 v70,2013-12-03 16:16:00,
2013-12-03 11:18:00,59.7,53.2,30.00,ENE,72,0.0,6.0,79,0.00,,,0.00,Weather View 32 v70,2013-12-03 16:18:00,
2013-12-03 11:19:00,59.6,53.1,30.00,ENE,72,0.0,6.0,79,0.00,,,0.00,Weather View 32 v70,2013-12-03 16:19:00,
2013-12-03 11:20:00,59.6,53.1,30.00,ENE,72,0.0,6.0,79,0.00,,,0.00,Weather View 32 v70,2013-12-03 16:20:00,
2013-12-03 11:21:00,59.5,52.8,30.00,ENE,72,0.0,6.0,79,0.00,,,0.00,Weather View 32 v70,2013-12-03 16:21:00,
2013-12-03 11:22:00,59.5,52.8,30.00,ENE,72,0.0,6.0,78,0.00,,,0.00,Weather View 32 v70,2013-12-03 16:22:00,
2013-12-03 11:23:00,59.5,52.7,30.00,ENE,72,0.0,5.0,78,0.00,,,0.00,Weather View 32 v70,2013-12-03 16:23:00,
2013-12-03 11:24:00,59.5,52.7,30.00,ENE,72,0.0,5.0,78,0.00,,,0.00,Weather View 32 v70,2013-12-03 16:24:00,
2013-12-03 11:25:00,59.4,52.6,30.00,ENE,72,0.0,5.0,78,0.00,,,0.00,Weather View 32 v70,2013-12-03 16:25:00,
2013-12-03 11:26:00,59.3,52.6,30.00,ENE,72,0.0,5.0,78,0.00,,,0.00,Weather View 32 v70,2013-12-03 16:26:00,
2013-12-03 11:27:00,59.3,52.6,30.00,ENE,72,0.0,5.0,78,0.00,,,0.00,Weather View 32 v70,2013-12-03 16:27:00,
2013-12-03 11:28:00,59.2,52.5,30.00,ENE,72,0.0,4.0,79,0.00,,,0.00,Weather View 32 v70,2013-12-03 16:28:00,
2013-12-03 11:29:00,59.2,52.5,30.00,ENE,72,0.0,4.0,79,0.00,,,0.00,Weather View 32 v70,2013-12-03 16:29:00,
2013-12-03 11:30:00,59.1,52.4,30.00,ENE,72,0.0,4.0,79,0.00,,,0.00,Weather View 32 v70,2013-12-03 16:30:00,
2013-12-03 11:32:00,59.0,52.4,29.99,ENE,72,0.0,4.0,79,0.00,,,0.00,Weather View 32 v70,2013-12-03 16:32:00,
2013-12-03 11:33:00,59.0,52.4,29.99,ENE,72,0.0,4.0,79,0.00,,,0.00,Weather View 32 v70,2013-12-03 16:33:00,
2013-12-03 11:34:00,59.1,52.5,29.99,ENE,72,0.0,4.0,79,0.00,,,0.00,Weather View 32 v70,2013-12-03 16:34:00,
2013-12-03 11:35:00,59.0,52.4,29.99,East,82,0.0,4.0,79,0.00,,,0.00,Weather View 32 v70,2013-12-03 16:35:00,
2013-12-03 11:37:00,59.1,52.5,29.99,East,82,0.0,3.0,79,0.00,,,0.00,Weather View 32 v70,2013-12-03 16:37:00,
2013-12-03 11:38:00,59.1,52.5,29.99,East,82,0.0,3.0,79,0.00,,,0.00,Weather View 32 v70,2013-12-03 16:38:00,
2013-12-03 11:39:00,59.2,52.6,29.99,East,82,0.0,3.0,79,0.00,,,0.00,Weather View 32 v70,2013-12-03 16:39:00,
2013-12-03 11:41:00,59.2,52.5,29.99,ESE,104,3.0,3.0,79,0.00,,,0.00,Weather View 32 v70,2013-12-03 16:41:00,
2013-12-03 11:42:00,59.1,52.4,29.99,ESE,108,3.0,3.0,79,0.00,,,0.00,Weather View 32 v70,2013-12-03 16:42:00,
2013-12-03 11:43:00,59.2,52.5,29.99,ESE,103,2.0,3.0,79,0.00,,,0.00,Weather View 32 v70,2013-12-03 16:43:00,
2013-12-03 11:44:00,59.1,52.4,29.99,ESE,103,3.0,3.0,79,0.00,,,0.00,Weather View 32 v70,2013-12-03 16:44:00,
2013-12-03 11:46:00,59.1,52.4,29.99,East,87,3.0,3.0,79,0.00,,,0.00,Weather View 32 v70,2013-12-03 16:46:00,
2013-12-03 11:47:00,59.2,52.5,29.99,East,96,3.0,3.0,79,0.00,,,0.00,Weather View 32 v70,2013-12-03 16:47:00,
2013-12-03 11:48:00,59.2,52.5,29.98,East,96,3.0,3.0,79,0.00,,,0.00,Weather View 32 v70,2013-12-03 16:48:00,
2013-12-03 11:49:00,59.3,52.7,29.98,East,89,5.0,5.0,79,0.00,,,0.00,Weather View 32 v70,2013-12-03 16:49:00,
2013-12-03 11:51:00,59.5,52.7,29.98,East,101,5.0,5.0,78,0.00,,,0.00,Weather View 32 v70,2013-12-03 16:51:00,
2013-12-03 11:52:00,59.4,52.6,29.98,East,100,5.0,5.0,78,0.00,,,0.00,Weather View 32 v70,2013-12-03 16:52:00,
2013-12-03 11:53:00,59.5,52.6,29.98,ESE,107,4.0,5.0,78,0.00,,,0.00,Weather View 32 v70,2013-12-03 16:53:00,
2013-12-03 11:54:00,59.6,52.6,29.98,East,80,4.0,5.0,78,0.00,,,0.00,Weather View 32 v70,2013-12-03 16:54:00,
2013-12-03 11:57:00,59.5,52.3,29.98,East,86,3.0,5.0,77,0.00,,,0.00,Weather View 32 v70,2013-12-03 16:57:00,
2013-12-03 11:58:00,59.5,52.3,29.98,East,86,5.0,5.0,77,0.00,,,0.00,Weather View 32 v70,2013-12-03 16:58:00,
2013-12-03 11:59:00,59.5,52.3,29.98,East,86,5.0,5.0,77,0.00,,,0.00,Weather View 32 v70,2013-12-03 16:59:00,
2013-12-03 12:02:00,59.6,52.2,29.98,ESE,103,3.0,6.0,77,0.00,,,0.00,Weather View 32 v70,2013-12-03 17:02:00,
2013-12-03 12:03:00,59.4,52.0,29.98,East,100,4.0,6.0,77,0.00,,,0.00,Weather View 32 v70,2013-12-03 17:03:00,
2013-12-03 12:04:00,59.4,52.0,29.98,East,98,3.0,6.0,77,0.00,,,0.00,Weather View 32 v70,2013-12-03 17:04:00,
2013-12-03 12:05:00,59.5,52.1,29.98,East,93,3.0,6.0,77,0.00,,,0.00,Weather View 32 v70,2013-12-03 17:05:00,
2013-12-03 12:07:00,59.5,52.1,29.98,East,89,3.0,6.0,76,0.00,,,0.00,Weather View 32 v70,2013-12-03 17:07:00,
2013-12-03 12:08:00,59.4,51.9,29.98,East,93,3.0,6.0,76,0.00,,,0.00,Weather View 32 v70,2013-12-03 17:08:00,
2013-12-03 12:09:00,59.4,51.9,29.98,East,93,3.0,6.0,76,0.00,,,0.00,Weather View 32 v70,2013-12-03 17:09:00,
2013-12-03 12:10:00,59.4,51.9,29.98,ESE,105,3.0,6.0,76,0.00,,,0.00,Weather View 32 v70,2013-12-03 17:10:00,
2013-12-03 12:12:00,59.4,51.9,29.98,ESE,115,2.0,6.0,76,0.00,,,0.00,Weather View 32 v70,2013-12-03 17:12:00,
2013-12-03 12:13:00,59.4,51.9,29.98,ESE,113,2.0,6.0,76,0.00,,,0.00,Weather View 32 v70,2013-12-03 17:13:00,
2013-12-03 12:14:00,59.4,51.9,29.98,ESE,113,2.0,6.0,76,0.00,,,0.00,Weather View 32 v70,2013-12-03 17:14:00,
2013-12-03 12:15:00,59.4,52.0,29.98,SE,132,2.0,6.0,76,0.00,,,0.00,Weather View 32 v70,2013-12-03 17:15:00,
2013-12-03 12:16:00,59.5,52.0,29.98,ESE,113,1.0,6.0,76,0.00,,,0.00,Weather View 32 v70,2013-12-03 17:16:00,
2013-12-03 12:17:00,59.4,51.8,29.98,East,93,1.0,6.0,76,0.00,,,0.00,Weather View 32 v70,2013-12-03 17:17:00,
2013-12-03 12:18:00,59.4,51.8,29.98,ESE,107,0.0,6.0,76,0.00,,,0.00,Weather View 32 v70,2013-12-03 17:18:00,
2013-12-03 12:19:00,59.4,51.8,29.98,ESE,107,0.0,6.0,76,0.00,,,0.00,Weather View 32 v70,2013-12-03 17:19:00,
2013-12-03 12:20:00,59.4,51.9,29.98,SSE,160,0.0,6.0,76,0.00,,,0.00,Weather View 32 v70,2013-12-03 17:20:00,
2013-12-03 12:21:00,59.3,51.8,29.98,SSE,160,0.0,6.0,76,0.00,,,0.00,Weather View 32 v70,2013-12-03 17:21:00,
2013-12-03 12:22:00,59.4,52.0,29.98,SSW,193,2.0,6.0,77,0.00,,,0.00,Weather View 32 v70,2013-12-03 17:22:00,
2013-12-03 12:24:00,59.4,52.0,29.98,SSW,208,1.0,6.0,77,0.00,,,0.00,Weather View 32 v70,2013-12-03 17:24:00,
2013-12-03 12:25:00,59.5,52.1,29.98,South,187,0.0,6.0,76,0.00,,,0.00,Weather View 32 v70,2013-12-03 17:25:00,
2013-12-03 12:26:00,59.7,52.2,29.98,South,183,2.0,6.0,76,0.00,,,0.00,Weather View 32 v70,2013-12-03 17:26:00,
2013-12-03 12:27:00,59.6,52.0,29.98,South,180,1.0,6.0,76,0.00,,,0.00,Weather View 32 v70,2013-12-03 17:27:00,
2013-12-03 12:29:00,59.8,52.2,29.98,South,170,1.0,6.0,76,0.00,,,0.00,Weather View 32 v70,2013-12-03 17:29:00,
2013-12-03 12:30:00,60.0,52.4,29.98,South,169,2.0,6.0,76,0.00,,,0.00,Weather View 32 v70,2013-12-03 17:30:00,
2013-12-03 12:31:00,60.1,52.4,29.98,SSE,160,1.0,6.0,76,0.00,,,0.00,Weather View 32 v70,2013-12-03 17:31:00,
2013-12-03 12:32:00,60.2,52.5,29.97,SSE,156,1.0,6.0,76,0.00,,,0.00,Weather View 32 v70,2013-12-03 17:32:00,
2013-12-03 12:33:00,60.3,52.5,29.98,SSE,163,1.0,6.0,76,0.00,,,0.00,Weather View 32 v70,2013-12-03 17:33:00,
2013-12-03 12:34:00,60.4,52.6,29.98,SSE,167,1.0,6.0,76,0.00,,,0.00,Weather View 32 v70,2013-12-03 17:34:00,
2013-12-03 12:35:00,60.6,52.8,29.98,South,172,1.0,6.0,75,0.00,,,0.00,Weather View 32 v70,2013-12-03 17:35:00,
2013-12-03 12:37:00,60.8,52.8,29.97,SE,139,0.0,6.0,75,0.00,,,0.00,Weather View 32 v70,2013-12-03 17:37:00,
2013-12-03 12:38:00,61.0,53.0,29.97,South,176,1.0,6.0,75,0.00,,,0.00,Weather View 32 v70,2013-12-03 17:38:00,
2013-12-03 12:39:00,61.1,52.9,29.97,South,188,1.0,6.0,75,0.00,,,0.00,Weather View 32 v70,2013-12-03 17:39:00,
2013-12-03 12:40:00,61.2,52.6,29.97,SSW,198,2.0,6.0,73,0.00,,,0.00,Weather View 32 v70,2013-12-03 17:40:00,
2013-12-03 12:42:00,61.0,52.3,29.97,SSW,193,2.0,6.0,73,0.00,,,0.00,Weather View 32 v70,2013-12-03 17:42:00,
2013-12-03 12:43:00,61.0,52.3,29.97,SSW,200,2.0,6.0,73,0.00,,,0.00,Weather View 32 v70,2013-12-03 17:43:00,
2013-12-03 12:44:00,61.0,52.2,29.97,SSW,193,2.0,6.0,73,0.00,,,0.00,Weather View 32 v70,2013-12-03 17:44:00,
2013-12-03 12:45:00,60.9,52.1,29.97,SSW,197,2.0,6.0,73,0.00,,,0.00,Weather View 32 v70,2013-12-03 17:45:00,
2013-12-03 12:46:00,61.1,52.3,29.97,SSW,197,2.0,6.0,73,0.00,,,0.00,Weather View 32 v70,2013-12-03 17:46:00,
2013-12-03 12:47:00,60.9,52.2,29.97,SSE,167,1.0,6.0,73,0.00,,,0.00,Weather View 32 v70,2013-12-03 17:47:00,
2013-12-03 12:48:00,61.0,52.3,29.97,South,177,1.0,6.0,73,0.00,,,0.00,Weather View 32 v70,2013-12-03 17:48:00,
2013-12-03 12:49:00,61.0,52.2,29.97,South,188,2.0,6.0,73,0.00,,,0.00,Weather View 32 v70,2013-12-03 17:49:00,
2013-12-03 12:50:00,61.1,52.3,29.97,South,181,0.0,6.0,73,0.00,,,0.00,Weather View 32 v70,2013-12-03 17:50:00,
2013-12-03 12:51:00,61.2,52.4,29.97,SSE,162,1.0,6.0,73,0.00,,,0.00,Weather View 32 v70,2013-12-03 17:51:00,
2013-12-03 12:53:00,61.2,52.3,29.97,South,169,1.0,6.0,73,0.00,,,0.00,Weather View 32 v70,2013-12-03 17:53:00,
2013-12-03 12:54:00,61.3,52.4,29.97,South,176,2.0,6.0,73,0.00,,,0.00,Weather View 32 v70,2013-12-03 17:54:00,
2013-12-03 12:55:00,61.5,52.5,29.97,SSE,158,2.0,6.0,72,0.00,,,0.00,Weather View 32 v70,2013-12-03 17:55:00,
2013-12-03 12:57:00,61.6,52.5,29.97,South,187,2.0,6.0,72,0.00,,,0.00,Weather View 32 v70,2013-12-03 17:57:00,
2013-12-03 12:58:00,61.6,52.5,29.97,SSE,160,1.0,6.0,72,0.00,,,0.00,Weather View 32 v70,2013-12-03 17:58:00,
2013-12-03 12:59:00,61.6,52.4,29.96,ESE,120,0.0,6.0,72,0.00,,,0.00,Weather View 32 v70,2013-12-03 17:59:00,
2013-12-03 13:00:00,61.6,52.4,29.97,ESE,120,0.0,6.0,72,0.00,,,0.00,Weather View 32 v70,2013-12-03 18:00:00,
2013-12-03 13:02:00,61.6,52.2,29.97,ESE,120,0.0,4.0,71,0.00,,,0.00,Weather View 32 v70,2013-12-03 18:02:00,
2013-12-03 13:03:00,61.6,52.1,29.96,ESE,120,0.0,4.0,71,0.00,,,0.00,Weather View 32 v70,2013-12-03 18:03:00,
2013-12-03 13:05:00,61.6,52.2,29.97,ESE,120,0.0,3.0,71,0.00,,,0.00,Weather View 32 v70,2013-12-03 18:05:00,
2013-12-03 13:06:00,61.5,52.2,29.96,ESE,120,0.0,3.0,72,0.00,,,0.00,Weather View 32 v70,2013-12-03 18:06:00,
2013-12-03 13:08:00,61.6,52.3,29.96,ESE,120,0.0,3.0,72,0.00,,,0.00,Weather View 32 v70,2013-12-03 18:08:00,
2013-12-03 13:10:00,61.6,52.2,29.96,ESE,120,0.0,3.0,71,0.00,,,0.00,Weather View 32 v70,2013-12-03 18:10:00,
2013-12-03 13:11:00,61.6,52.2,29.96,ESE,120,0.0,3.0,71,0.00,,,0.00,Weather View 32 v70,2013-12-03 18:11:00,
2013-12-03 13:13:00,61.5,52.0,29.96,ESE,120,0.0,3.0,71,0.00,,,0.00,Weather View 32 v70,2013-12-03 18:13:00,
2013-12-03 13:14:00,61.5,51.9,29.96,ESE,120,0.0,3.0,71,0.00,,,0.00,Weather View 32 v70,2013-12-03 18:14:00,
2013-12-03 13:15:00,61.3,51.9,29.96,ESE,120,0.0,3.0,71,0.00,,,0.00,Weather View 32 v70,2013-12-03 18:15:00,
2013-12-03 13:16:00,61.4,52.0,29.96,ESE,120,0.0,3.0,71,0.00,,,0.00,Weather View 32 v70,2013-12-03 18:16:00,
2013-12-03 13:18:00,61.4,52.0,29.95,ESE,120,0.0,3.0,71,0.00,,,0.00,Weather View 32 v70,2013-12-03 18:18:00,
2013-12-03 13:19:00,61.5,52.0,29.95,ESE,120,0.0,3.0,71,0.00,,,0.00,Weather View 32 v70,2013-12-03 18:19:00,
2013-12-03 13:20:00,61.4,51.9,29.95,ESE,120,0.0,3.0,71,0.00,,,0.00,Weather View 32 v70,2013-12-03 18:20:00,
2013-12-03 13:21:00,61.4,51.9,29.95,ESE,120,0.0,3.0,71,0.00,,,0.00,Weather View 32 v70,2013-12-03 18:21:00,
2013-12-03 13:24:00,61.5,51.8,29.95,South,184,2.0,3.0,71,0.00,,,0.00,Weather View 32 v70,2013-12-03 18:24:00,
2013-12-03 13:25:00,61.6,51.8,29.95,South,176,3.0,3.0,70,0.00,,,0.00,Weather View 32 v70,2013-12-03 18:25:00,
2013-12-03 13:26:00,61.7,51.9,29.95,South,187,3.0,3.0,70,0.00,,,0.00,Weather View 32 v70,2013-12-03 18:26:00,
2013-12-03 13:29:00,61.6,51.6,29.95,SSW,200,3.0,4.0,70,0.00,,,0.00,Weather View 32 v70,2013-12-03 18:29:00,
2013-12-03 13:30:00,61.6,51.5,29.95,SSW,194,4.0,4.0,70,0.00,,,0.00,Weather View 32 v70,2013-12-03 18:30:00,
2013-12-03 13:31:00,61.5,51.4,29.95,SSW,197,4.0,5.0,69,0.00,,,0.00,Weather View 32 v70,2013-12-03 18:31:00,
2013-12-03 13:34:00,61.2,51.1,29.95,SSW,197,5.0,6.0,69,0.00,,,0.00,Weather View 32 v70,2013-12-03 18:34:00,
2013-12-03 13:35:00,61.1,51.0,29.95,SSW,204,6.0,6.0,69,0.00,,,0.00,Weather View 32 v70,2013-12-03 18:35:00,
2013-12-03 13:36:00,61.1,51.0,29.95,SSW,204,6.0,6.0,70,0.00,,,0.00,Weather View 32 v70,2013-12-03 18:36:00,
2013-12-03 13:39:00,60.8,51.6,29.95,SSW,195,7.0,7.0,72,0.00,,,0.00,Weather View 32 v70,2013-12-03 18:39:00,
2013-12-03 13:40:00,60.7,51.5,29.95,SSW,193,8.0,8.0,72,0.00,,,0.00,Weather View 32 v70,2013-12-03 18:40:00,
2013-12-03 13:41:00,60.6,51.3,29.95,SSW,194,7.0,8.0,71,0.00,,,0.00,Weather View 32 v70,2013-12-03 18:41:00,
2013-12-03 13:45:00,60.5,50.8,29.95,South,191,5.0,8.0,70,0.00,,,0.00,Weather View 32 v70,2013-12-03 18:45:00,
2013-12-03 13:46:00,60.7,50.9,29.95,South,187,4.0,8.0,70,0.00,,,0.00,Weather View 32 v70,2013-12-03 18:46:00,
2013-12-03 13:47:00,60.7,50.9,29.95,South,188,4.0,8.0,70,0.00,,,0.00,Weather View 32 v70,2013-12-03 18:47:00,
2013-12-03 13:50:00,60.8,51.0,29.95,South,190,4.0,8.0,70,0.00,,,0.00,Weather View 32 v70,2013-12-03 18:50:00,
2013-12-03 13:51:00,61.1,51.3,29.95,South,190,4.0,8.0,70,0.00,,,0.00,Weather View 32 v70,2013-12-03 18:51:00,
2013-12-03 13:53:00,61.2,51.1,29.95,SSW,197,4.0,8.0,69,0.00,,,0.00,Weather View 32 v70,2013-12-03 18:53:00,
2013-12-03 13:55:00,61.2,50.9,29.95,SSW,200,5.0,8.0,69,0.00,,,0.00,Weather View 32 v70,2013-12-03 18:55:00,
2013-12-03 13:56:00,61.1,50.9,29.95,SSW,197,5.0,8.0,69,0.00,,,0.00,Weather View 32 v70,2013-12-03 18:56:00,
2013-12-03 13:58:00,60.9,50.9,29.96,SSW,197,5.0,8.0,70,0.00,,,0.00,Weather View 32 v70,2013-12-03 18:58:00,
2013-12-03 14:00:00,60.8,50.9,29.96,SSW,207,6.0,8.0,70,0.00,,,0.00,Weather View 32 v70,2013-12-03 19:00:00,
2013-12-03 14:01:00,60.6,50.8,29.96,SSW,200,6.0,8.0,70,0.00,,,0.00,Weather View 32 v70,2013-12-03 19:01:00,
2013-12-03 14:02:00,60.8,51.0,29.96,SSW,203,6.0,8.0,70,0.00,,,0.00,Weather View 32 v70,2013-12-03 19:02:00,
2013-12-03 14:03:00,60.6,50.7,29.96,SSW,197,6.0,8.0,70,0.00,,,0.00,Weather View 32 v70,2013-12-03 19:03:00,
2013-12-03 14:05:00,60.5,50.8,29.96,SW,214,7.0,8.0,70,0.00,,,0.00,Weather View 32 v70,2013-12-03 19:05:00,
2013-12-03 14:06:00,60.4,50.8,29.96,SSW,201,6.0,8.0,71,0.00,,,0.00,Weather View 32 v70,2013-12-03 19:06:00,
2013-12-03 14:07:00,60.5,51.1,29.96,SSW,205,6.0,8.0,71,0.00,,,0.00,Weather View 32 v70,2013-12-03 19:07:00,
2013-12-03 14:08:00,60.6,51.2,29.96,SSW,210,5.0,8.0,71,0.00,,,0.00,Weather View 32 v70,2013-12-03 19:08:00,
2013-12-03 14:10:00,60.5,50.8,29.96,SSW,203,5.0,8.0,71,0.00,,,0.00,Weather View 32 v70,2013-12-03 19:10:00,
2013-12-03 14:11:00,60.5,50.8,29.96,SSW,204,5.0,8.0,70,0.00,,,0.00,Weather View 32 v70,2013-12-03 19:11:00,
2013-12-03 14:12:00,60.6,50.9,29.96,SSW,208,5.0,8.0,71,0.00,,,0.00,Weather View 32 v70,2013-12-03 19:12:00,
2013-12-03 14:13:00,60.6,51.0,29.96,SSW,204,5.0,8.0,71,0.00,,,0.00,Weather View 32 v70,2013-12-03 19:13:00,
2013-12-03 14:16:00,60.8,51.4,29.96,SSW,208,4.0,8.0,71,0.00,,,0.00,Weather View 32 v70,2013-12-03 19:16:00,
2013-12-03 14:17:00,60.8,51.5,29.96,SSW,208,3.0,8.0,72,0.00,,,0.00,Weather View 32 v70,2013-12-03 19:17:00,
2013-12-03 14:18:00,60.9,51.5,29.96,SW,215,5.0,8.0,71,0.00,,,0.00,Weather View 32 v70,2013-12-03 19:18:00,
2013-12-03 14:21:00,60.9,51.3,29.96,SW,225,3.0,8.0,71,0.00,,,0.00,Weather View 32 v70,2013-12-03 19:21:00,
2013-12-03 14:22:00,61.1,51.4,29.96,SW,221,2.0,8.0,71,0.00,,,0.00,Weather View 32 v70,2013-12-03 19:22:00,
2013-12-03 14:23:00,61.2,51.4,29.97,SW,222,2.0,8.0,70,0.00,,,0.00,Weather View 32 v70,2013-12-03 19:23:00,
2013-12-03 14:26:00,61.5,51.4,29.97,SW,222,3.0,8.0,70,0.00,,,0.00,Weather View 32 v70,2013-12-03 19:26:00,
2013-12-03 14:27:00,61.6,51.4,29.97,SSW,212,3.0,8.0,69,0.00,,,0.00,Weather View 32 v70,2013-12-03 19:27:00,
2013-12-03 14:28:00,61.5,51.2,29.97,SW,219,3.0,8.0,69,0.00,,,0.00,Weather View 32 v70,2013-12-03 19:28:00,
2013-12-03 14:31:00,61.8,51.0,29.97,SSW,204,5.0,8.0,68,0.00,,,0.00,Weather View 32 v70,2013-12-03 19:31:00,
2013-12-03 14:32:00,61.8,50.9,29.97,SSW,210,4.0,8.0,68,0.00,,,0.00,Weather View 32 v70,2013-12-03 19:32:00,
2013-12-03 14:33:00,61.9,51.1,29.97,SSW,207,4.0,8.0,68,0.00,,,0.00,Weather View 32 v70,2013-12-03 19:33:00,
2013-12-03 14:34:00,61.8,51.0,29.97,SSW,212,4.0,8.0,68,0.00,,,0.00,Weather View 32 v70,2013-12-03 19:34:00,
2013-12-03 14:36:00,61.7,50.8,29.97,SSW,194,3.0,8.0,68,0.00,,,0.00,Weather View 32 v70,2013-12-03 19:36:00,
2013-12-03 14:37:00,61.6,50.8,29.97,South,190,3.0,8.0,68,0.00,,,0.00,Weather View 32 v70,2013-12-03 19:37:00,
2013-12-03 14:39:00,61.6,50.9,29.97,SSW,197,4.0,8.0,68,0.00,,,0.00,Weather View 32 v70,2013-12-03 19:39:00,
2013-12-03 14:41:00,61.4,50.8,29.97,SSW,205,3.0,8.0,68,0.00,,,0.00,Weather View 32 v70,2013-12-03 19:41:00,
2013-12-03 14:42:00,61.4,50.8,29.97,SSW,200,3.0,8.0,68,0.00,,,0.00,Weather View 32 v70,2013-12-03 19:42:00,
2013-12-03 14:44:00,61.3,50.9,29.97,SSW,194,3.0,7.0,69,0.00,,,0.00,Weather View 32 v70,2013-12-03 19:44:00,
2013-12-03 14:47:00,61.3,51.1,29.97,South,184,2.0,7.0,69,0.00,,,0.00,Weather View 32 v70,2013-12-03 19:47:00,
2013-12-03 14:48:00,61.4,51.2,29.97,South,188,2.0,7.0,69,0.00,,,0.00,Weather View 32 v70,2013-12-03 19:48:00,
2013-12-03 14:49:00,61.5,51.2,29.97,South,184,2.0,7.0,69,0.00,,,0.00,Weather View 32 v70,2013-12-03 19:49:00,
2013-12-03 14:52:00,61.5,51.0,29.97,South,188,1.0,7.0,68,0.00,,,0.00,Weather View 32 v70,2013-12-03 19:52:00,
2013-12-03 14:53:00,61.5,51.1,29.97,South,179,1.0,7.0,69,0.00,,,0.00,Weather View 32 v70,2013-12-03 19:53:00,
2013-12-03 14:54:00,61.6,51.3,29.96,SSE,156,0.0,7.0,69,0.00,,,0.00,Weather View 32 v70,2013-12-03 19:54:00,
2013-12-03 14:57:00,61.7,51.4,29.96,South,169,1.0,7.0,69,0.00,,,0.00,Weather View 32 v70,2013-12-03 19:57:00,
2013-12-03 14:58:00,62.1,51.8,29.96,South,179,1.0,7.0,69,0.00,,,0.00,Weather View 32 v70,2013-12-03 19:58:00,
2013-12-03 14:59:00,62.1,51.5,29.96,SSE,165,1.0,7.0,68,0.00,,,0.00,Weather View 32 v70,2013-12-03 19:59:00,
2013-12-03 15:00:00,62.3,51.7,29.96,South,172,1.0,7.0,68,0.00,,,0.00,Weather View 32 v70,2013-12-03 20:00:00,
2013-12-03 15:02:00,62.3,51.3,29.96,South,174,0.0,7.0,67,0.00,,,0.00,Weather View 32 v70,2013-12-03 20:02:00,
2013-12-03 15:04:00,62.7,51.9,29.96,South,174,0.0,7.0,68,0.00,,,0.00,Weather View 32 v70,2013-12-03 20:04:00,
2013-12-03 15:05:00,62.9,52.2,29.96,South,174,0.0,7.0,68,0.00,,,0.00,Weather View 32 v70,2013-12-03 20:05:00,
2013-12-03 15:07:00,63.1,52.1,29.97,South,174,0.0,7.0,68,0.00,,,0.00,Weather View 32 v70,2013-12-03 20:07:00,
2013-12-03 15:08:00,63.3,52.1,29.97,South,174,0.0,6.0,67,0.00,,,0.00,Weather View 32 v70,2013-12-03 20:08:00,
2013-12-03 15:10:00,63.5,51.9,29.97,South,174,0.0,5.0,66,0.00,,,0.00,Weather View 32 v70,2013-12-03 20:10:00,
2013-12-03 15:12:00,63.7,52.1,29.97,South,174,0.0,5.0,66,0.00,,,0.00,Weather View 32 v70,2013-12-03 20:12:00,
2013-12-03 15:13:00,63.9,52.2,29.97,South,174,0.0,5.0,66,0.00,,,0.00,Weather View 32 v70,2013-12-03 20:13:00,
2013-12-03 15:15:00,63.9,52.1,29.97,South,174,0.0,5.0,66,0.00,,,0.00,Weather View 32 v70,2013-12-03 20:15:00,
2013-12-03 15:18:00,63.8,51.6,29.97,South,174,0.0,5.0,65,0.00,,,0.00,Weather View 32 v70,2013-12-03 20:18:00,
2013-12-03 15:20:00,63.8,51.4,29.97,South,174,0.0,5.0,64,0.00,,,0.00,Weather View 32 v70,2013-12-03 20:20:00,
2013-12-03 15:22:00,63.6,51.3,29.97,South,174,0.0,5.0,64,0.00,,,0.00,Weather View 32 v70,2013-12-03 20:22:00,
2013-12-03 15:23:00,63.6,51.3,29.97,South,174,0.0,5.0,64,0.00,,,0.00,Weather View 32 v70,2013-12-03 20:23:00,
2013-12-03 15:25:00,63.4,51.1,29.97,South,174,0.0,5.0,64,0.00,,,0.00,Weather View 32 v70,2013-12-03 20:25:00,
2013-12-03 15:26:00,63.4,51.1,29.97,South,174,0.0,5.0,64,0.00,,,0.00,Weather View 32 v70,2013-12-03 20:26:00,
2013-12-03 15:28:00,63.1,50.9,29.97,South,174,0.0,5.0,65,0.00,,,0.00,Weather View 32 v70,2013-12-03 20:28:00,
2013-12-03 15:30:00,62.8,51.0,29.97,South,174,0.0,5.0,65,0.00,,,0.00,Weather View 32 v70,2013-12-03 20:30:00,
2013-12-03 15:31:00,62.8,51.1,29.97,South,174,0.0,5.0,66,0.00,,,0.00,Weather View 32 v70,2013-12-03 20:31:00,
2013-12-03 15:33:00,62.5,51.0,29.97,South,174,0.0,5.0,66,0.00,,,0.00,Weather View 32 v70,2013-12-03 20:33:00,
2013-12-03 15:35:00,62.4,50.8,29.97,South,174,0.0,5.0,66,0.00,,,0.00,Weather View 32 v70,2013-12-03 20:35:00,
2013-12-03 15:36:00,62.2,50.5,29.97,South,174,0.0,5.0,66,0.00,,,0.00,Weather View 32 v70,2013-12-03 20:36:00,
2013-12-03 15:38:00,61.7,50.3,29.97,South,174,0.0,5.0,66,0.00,,,0.00,Weather View 32 v70,2013-12-03 20:38:00,
2013-12-03 15:40:00,61.4,50.2,29.97,South,174,0.0,5.0,67,0.00,,,0.00,Weather View 32 v70,2013-12-03 20:40:00,
2013-12-03 15:41:00,61.4,50.3,29.97,South,174,0.0,4.0,67,0.00,,,0.00,Weather View 32 v70,2013-12-03 20:41:00,
2013-12-03 15:43:00,60.9,50.2,29.97,South,174,0.0,3.0,68,0.00,,,0.00,Weather View 32 v70,2013-12-03 20:43:00,
2013-12-03 15:44:00,60.8,50.1,29.97,South,174,0.0,3.0,68,0.00,,,0.00,Weather View 32 v70,2013-12-03 20:44:00,
2013-12-03 15:45:00,60.5,50.0,29.97,South,174,0.0,3.0,68,0.00,,,0.00,Weather View 32 v70,2013-12-03 20:45:00,
2013-12-03 15:46:00,60.5,50.0,29.97,South,174,0.0,3.0,68,0.00,,,0.00,Weather View 32 v70,2013-12-03 20:46:00,
2013-12-03 15:47:00,60.4,50.0,29.97,South,174,0.0,3.0,69,0.00,,,0.00,Weather View 32 v70,2013-12-03 20:47:00,
2013-12-03 15:48:00,60.3,49.8,29.97,South,174,0.0,3.0,68,0.00,,,0.00,Weather View 32 v70,2013-12-03 20:48:00,
2013-12-03 15:49:00,60.2,49.8,29.97,South,174,0.0,3.0,69,0.00,,,0.00,Weather View 32 v70,2013-12-03 20:49:00,
2013-12-03 15:51:00,60.1,49.7,29.97,South,174,0.0,2.0,69,0.00,,,0.00,Weather View 32 v70,2013-12-03 20:51:00,
2013-12-03 15:52:00,60.1,49.7,29.97,South,174,0.0,2.0,69,0.00,,,0.00,Weather View 32 v70,2013-12-03 20:52:00,
2013-12-03 15:53:00,60.0,49.7,29.97,South,174,0.0,2.0,69,0.00,,,0.00,Weather View 32 v70,2013-12-03 20:53:00,
2013-12-03 15:55:00,60.0,49.7,29.97,South,174,0.0,2.0,69,0.00,,,0.00,Weather View 32 v70,2013-12-03 20:55:00,
2013-12-03 15:56:00,59.9,49.6,29.97,South,174,0.0,2.0,69,0.00,,,0.00,Weather View 32 v70,2013-12-03 20:56:00,
2013-12-03 15:57:00,59.9,49.5,29.97,South,174,0.0,2.0,69,0.00,,,0.00,Weather View 32 v70,2013-12-03 20:57:00,
2013-12-03 15:58:00,59.9,49.5,29.97,South,174,0.0,2.0,69,0.00,,,0.00,Weather View 32 v70,2013-12-03 20:58:00,
2013-12-03 16:00:00,59.9,49.5,29.97,South,174,0.0,1.0,69,0.00,,,0.00,Weather View 32 v70,2013-12-03 21:00:00,
2013-12-03 16:01:00,59.9,49.4,29.97,South,174,0.0,1.0,68,0.00,,,0.00,Weather View 32 v70,2013-12-03 21:01:00,
2013-12-03 16:02:00,60.0,49.5,29.97,South,174,0.0,0.0,68,0.00,,,0.00,Weather View 32 v70,2013-12-03 21:02:00,
2013-12-03 16:03:00,59.8,49.3,29.97,South,174,0.0,0.0,68,0.00,,,0.00,Weather View 32 v70,2013-12-03 21:03:00,
2013-12-03 16:05:00,59.8,49.3,29.97,South,174,0.0,0.0,68,0.00,,,0.00,Weather View 32 v70,2013-12-03 21:05:00,
2013-12-03 16:06:00,59.9,49.4,29.98,South,174,0.0,0.0,68,0.00,,,0.00,Weather View 32 v70,2013-12-03 21:06:00,
2013-12-03 16:07:00,60.0,49.5,29.98,South,174,0.0,0.0,68,0.00,,,0.00,Weather View 32 v70,2013-12-03 21:07:00,
2013-12-03 16:08:00,60.1,49.6,29.98,South,174,0.0,0.0,68,0.00,,,0.00,Weather View 32 v70,2013-12-03 21:08:00,
2013-12-03 16:09:00,60.0,49.5,29.98,South,174,0.0,0.0,68,0.00,,,0.00,Weather View 32 v70,2013-12-03 21:09:00,
2013-12-03 16:10:00,60.0,49.5,29.98,South,174,0.0,0.0,68,0.00,,,0.00,Weather View 32 v70,2013-12-03 21:10:00,
2013-12-03 16:11:00,60.1,49.6,29.98,South,174,0.0,0.0,68,0.00,,,0.00,Weather View 32 v70,2013-12-03 21:11:00,
2013-12-03 16:12:00,60.1,49.7,29.98,South,174,0.0,0.0,69,0.00,,,0.00,Weather View 32 v70,2013-12-03 21:12:00,
2013-12-03 16:13:00,60.2,49.8,29.98,South,174,0.0,0.0,69,0.00,,,0.00,Weather View 32 v70,2013-12-03 21:13:00,
2013-12-03 16:14:00,60.1,49.6,29.98,South,174,0.0,0.0,68,0.00,,,0.00,Weather View 32 v70,2013-12-03 21:14:00,
2013-12-03 16:15:00,60.0,49.5,29.98,South,174,0.0,0.0,68,0.00,,,0.00,Weather View 32 v70,2013-12-03 21:15:00,
2013-12-03 16:16:00,60.1,49.6,29.98,South,174,0.0,0.0,68,0.00,,,0.00,Weather View 32 v70,2013-12-03 21:16:00,
2013-12-03 16:18:00,59.9,49.3,29.98,South,174,0.0,0.0,68,0.00,,,0.00,Weather View 32 v70,2013-12-03 21:18:00,
2013-12-03 16:19:00,60.1,49.6,29.98,South,174,0.0,0.0,68,0.00,,,0.00,Weather View 32 v70,2013-12-03 21:19:00,
2013-12-03 16:21:00,60.0,49.4,29.98,South,174,0.0,0.0,68,0.00,,,0.00,Weather View 32 v70,2013-12-03 21:21:00,
2013-12-03 16:23:00,60.0,49.5,29.98,South,174,0.0,0.0,68,0.00,,,0.00,Weather View 32 v70,2013-12-03 21:23:00,
2013-12-03 16:25:00,60.0,49.4,29.98,South,174,0.0,0.0,68,0.00,,,0.00,Weather View 32 v70,2013-12-03 21:25:00,
2013-12-03 16:26:00,60.0,49.2,29.98,South,174,0.0,0.0,68,0.00,,,0.00,Weather View 32 v70,2013-12-03 21:26:00,
2013-12-03 16:28:00,60.0,48.9,29.98,South,174,0.0,0.0,67,0.00,,,0.00,Weather View 32 v70,2013-12-03 21:28:00,
2013-12-03 16:30:00,59.9,49.0,29.98,South,174,0.0,0.0,67,0.00,,,0.00,Weather View 32 v70,2013-12-03 21:30:00,
2013-12-03 16:31:00,60.0,49.3,29.98,South,174,0.0,0.0,68,0.00,,,0.00,Weather View 32 v70,2013-12-03 21:31:00,
2013-12-03 16:33:00,60.1,49.8,29.98,South,174,0.0,0.0,69,0.00,,,0.00,Weather View 32 v70,2013-12-03 21:33:00,
2013-12-03 16:34:00,60.2,49.9,29.98,South,174,0.0,0.0,69,0.00,,,0.00,Weather View 32 v70,2013-12-03 21:34:00,
2013-12-03 16:35:00,60.4,50.1,29.98,South,174,0.0,0.0,69,0.00,,,0.00,Weather View 32 v70,2013-12-03 21:35:00,
2013-12-03 16:36:00,60.1,49.8,29.98,South,174,0.0,0.0,69,0.00,,,0.00,Weather View 32 v70,2013-12-03 21:36:00,
2013-12-03 16:37:00,60.2,49.9,29.98,South,174,0.0,0.0,69,0.00,,,0.00,Weather View 32 v70,2013-12-03 21:37:00,
2013-12-03 16:38:00,60.1,49.8,29.98,South,174,0.0,0.0,69,0.00,,,0.00,Weather View 32 v70,2013-12-03 21:38:00,
2013-12-03 16:39:00,60.1,49.8,29.98,South,174,0.0,0.0,69,0.00,,,0.00,Weather View 32 v70,2013-12-03 21:39:00,
2013-12-03 16:40:00,60.0,49.7,29.98,South,174,0.0,0.0,69,0.00,,,0.00,Weather View 32 v70,2013-12-03 21:40:00,
2013-12-03 16:41:00,60.1,49.8,29.98,South,174,0.0,0.0,69,0.00,,,0.00,Weather View 32 v70,2013-12-03 21:41:00,
2013-12-03 16:42:00,59.9,49.7,29.98,South,174,0.0,0.0,69,0.00,,,0.00,Weather View 32 v70,2013-12-03 21:42:00,
2013-12-03 16:44:00,59.9,49.9,29.98,South,174,0.0,0.0,70,0.00,,,0.00,Weather View 32 v70,2013-12-03 21:44:00,
2013-12-03 16:45:00,59.9,50.0,29.98,South,174,0.0,0.0,70,0.00,,,0.00,Weather View 32 v70,2013-12-03 21:45:00,
2013-12-03 16:46:00,59.8,50.0,29.98,South,174,0.0,0.0,70,0.00,,,0.00,Weather View 32 v70,2013-12-03 21:46:00,
2013-12-03 16:47:00,59.9,50.1,29.98,South,174,0.0,0.0,70,0.00,,,0.00,Weather View 32 v70,2013-12-03 21:47:00,
2013-12-03 16:49:00,59.7,50.0,29.98,South,174,0.0,0.0,70,0.00,,,0.00,Weather View 32 v70,2013-12-03 21:49:00,
2013-12-03 16:50:00,59.8,50.2,29.98,South,174,0.0,0.0,71,0.00,,,0.00,Weather View 32 v70,2013-12-03 21:50:00,
2013-12-03 16:51:00,59.7,50.2,29.98,NE,49,1.0,0.0,71,0.00,,,0.00,Weather View 32 v70,2013-12-03 21:51:00,
2013-12-03 16:52:00,59.7,50.3,29.98,NE,49,0.0,1.0,71,0.00,,,0.00,Weather View 32 v70,2013-12-03 21:52:00,
2013-12-03 16:54:00,59.6,50.3,29.98,NE,49,0.0,1.0,71,0.00,,,0.00,Weather View 32 v70,2013-12-03 21:54:00,
2013-12-03 16:55:00,59.7,50.4,29.98,NE,49,0.0,1.0,72,0.00,,,0.00,Weather View 32 v70,2013-12-03 21:55:00,
2013-12-03 16:56:00,59.6,50.5,29.98,NE,49,0.0,1.0,72,0.00,,,0.00,Weather View 32 v70,2013-12-03 21:56:00,
2013-12-03 16:58:00,59.6,50.7,29.98,NE,49,0.0,1.0,72,0.00,,,0.00,Weather View 32 v70,2013-12-03 21:58:00,
2013-12-03 16:59:00,59.6,50.9,29.98,NE,49,0.0,1.0,73,0.00,,,0.00,Weather View 32 v70,2013-12-03 21:59:00,
2013-12-03 17:00:00,59.6,51.0,29.98,NE,49,0.0,1.0,73,0.00,,,0.00,Weather View 32 v70,2013-12-03 22:00:00,
2013-12-03 17:01:00,59.6,51.1,29.98,NE,49,0.0,1.0,73,0.00,,,0.00,Weather View 32 v70,2013-12-03 22:01:00,
2013-12-03 17:03:00,59.5,51.2,29.98,NE,49,0.0,1.0,74,0.00,,,0.00,Weather View 32 v70,2013-12-03 22:03:00,
2013-12-03 17:05:00,59.5,51.4,29.98,NE,49,0.0,1.0,75,0.00,,,0.00,Weather View 32 v70,2013-12-03 22:05:00,
2013-12-03 17:06:00,59.5,51.5,29.98,NE,49,0.0,1.0,75,0.00,,,0.00,Weather View 32 v70,2013-12-03 22:06:00,
2013-12-03 17:08:00,59.3,51.4,29.98,NE,49,0.0,1.0,75,0.00,,,0.00,Weather View 32 v70,2013-12-03 22:08:00,
2013-12-03 17:10:00,59.3,51.6,29.98,NE,49,0.0,1.0,76,0.00,,,0.00,Weather View 32 v70,2013-12-03 22:10:00,
2013-12-03 17:11:00,59.2,51.6,29.98,NE,49,0.0,1.0,76,0.00,,,0.00,Weather View 32 v70,2013-12-03 22:11:00,
2013-12-03 17:12:00,59.3,51.8,29.98,NE,49,0.0,1.0,76,0.00,,,0.00,Weather View 32 v70,2013-12-03 22:12:00,
2013-12-03 17:13:00,59.2,51.8,29.98,NE,49,0.0,1.0,77,0.00,,,0.00,Weather View 32 v70,2013-12-03 22:13:00,
2013-12-03 17:15:00,59.1,51.8,29.98,NE,49,0.0,1.0,77,0.00,,,0.00,Weather View 32 v70,2013-12-03 22:15:00,
2013-12-03 17:16:00,59.1,51.9,29.98,NE,49,0.0,1.0,77,0.00,,,0.00,Weather View 32 v70,2013-12-03 22:16:00,
2013-12-03 17:17:00,59.1,52.0,29.98,NE,49,0.0,1.0,77,0.00,,,0.00,Weather View 32 v70,2013-12-03 22:17:00,
2013-12-03 17:19:00,59.0,52.0,29.98,NE,49,0.0,1.0,78,0.00,,,0.00,Weather View 32 v70,2013-12-03 22:19:00,
2013-12-03 17:20:00,59.0,52.1,29.98,NE,49,0.0,1.0,78,0.00,,,0.00,Weather View 32 v70,2013-12-03 22:20:00,
2013-12-03 17:21:00,58.9,52.0,29.98,NE,49,0.0,1.0,78,0.00,,,0.00,Weather View 32 v70,2013-12-03 22:21:00,
2013-12-03 17:22:00,58.9,52.1,29.98,NE,49,0.0,1.0,78,0.00,,,0.00,Weather View 32 v70,2013-12-03 22:22:00,
2013-12-03 17:24:00,58.9,52.2,29.98,NE,49,0.0,1.0,78,0.00,,,0.00,Weather View 32 v70,2013-12-03 22:24:00,
2013-12-03 17:26:00,58.9,52.3,29.98,NE,49,0.0,1.0,79,0.00,,,0.00,Weather View 32 v70,2013-12-03 22:26:00,
2013-12-03 17:27:00,58.8,52.3,29.98,NE,49,0.0,1.0,79,0.00,,,0.00,Weather View 32 v70,2013-12-03 22:27:00,
2013-12-03 17:29:00,58.8,52.4,29.98,NE,49,0.0,1.0,79,0.00,,,0.00,Weather View 32 v70,2013-12-03 22:29:00,
2013-12-03 17:31:00,58.7,52.4,29.98,NE,49,0.0,1.0,80,0.00,,,0.00,Weather View 32 v70,2013-12-03 22:31:00,
2013-12-03 17:32:00,58.8,52.6,29.98,NE,49,0.0,1.0,80,0.00,,,0.00,Weather View 32 v70,2013-12-03 22:32:00,
2013-12-03 17:35:00,58.8,52.7,29.98,NE,49,0.0,1.0,80,0.00,,,0.00,Weather View 32 v70,2013-12-03 22:35:00,
2013-12-03 17:36:00,58.7,52.6,29.98,NE,49,0.0,1.0,80,0.00,,,0.00,Weather View 32 v70,2013-12-03 22:36:00,
2013-12-03 17:37:00,58.7,52.6,29.98,NE,49,0.0,1.0,80,0.00,,,0.00,Weather View 32 v70,2013-12-03 22:37:00,
2013-12-03 17:40:00,58.7,52.7,29.98,NE,49,0.0,1.0,81,0.00,,,0.00,Weather View 32 v70,2013-12-03 22:40:00,
2013-12-03 17:41:00,58.7,52.8,29.98,NE,49,0.0,1.0,81,0.00,,,0.00,Weather View 32 v70,2013-12-03 22:41:00,
2013-12-03 17:42:00,58.6,52.7,29.98,NE,49,0.0,1.0,81,0.00,,,0.00,Weather View 32 v70,2013-12-03 22:42:00,
2013-12-03 17:45:00,58.5,52.7,29.98,NE,48,2.0,6.0,81,0.00,,,0.00,Weather View 32 v70,2013-12-03 22:45:00,
2013-12-03 17:46:00,58.5,52.7,29.98,East,82,4.0,6.0,81,0.00,,,0.00,Weather View 32 v70,2013-12-03 22:46:00,
2013-12-03 17:47:00,58.5,52.8,29.98,NE,56,4.0,6.0,81,0.00,,,0.00,Weather View 32 v70,2013-12-03 22:47:00,
2013-12-03 17:48:00,58.4,52.7,29.98,ENE,65,3.0,6.0,81,0.00,,,0.00,Weather View 32 v70,2013-12-03 22:48:00,
2013-12-03 17:50:00,58.4,52.7,29.98,NE,41,5.0,6.0,82,0.00,,,0.00,Weather View 32 v70,2013-12-03 22:50:00,
2013-12-03 17:51:00,58.4,52.8,29.98,NNE,32,4.0,6.0,82,0.00,,,0.00,Weather View 32 v70,2013-12-03 22:51:00,
2013-12-03 17:52:00,58.3,52.7,29.98,NE,45,2.0,6.0,82,0.00,,,0.00,Weather View 32 v70,2013-12-03 22:52:00,
2013-12-03 17:53:00,58.3,52.7,29.98,NE,39,3.0,6.0,82,0.00,,,0.00,Weather View 32 v70,2013-12-03 22:53:00,
2013-12-03 17:55:00,58.4,52.9,29.98,NE,42,3.0,7.0,82,0.00,,,0.00,Weather View 32 v70,2013-12-03 22:55:00,
2013-12-03 17:57:00,58.4,52.9,29.98,NE,49,4.0,7.0,82,0.00,,,0.00,Weather View 32 v70,2013-12-03 22:57:00,
2013-12-03 17:58:00,58.4,53.0,29.99,ENE,65,4.0,7.0,82,0.00,,,0.00,Weather View 32 v70,2013-12-03 22:58:00,
2013-12-03 18:00:00,58.3,52.9,29.98,NE,55,4.0,7.0,82,0.00,,,0.00,Weather View 32 v70,2013-12-03 23:00:00,
2013-12-03 18:02:00,58.3,53.0,29.98,NE,49,3.0,7.0,83,0.00,,,0.00,Weather View 32 v70,2013-12-03 23:02:00,
2013-12-03 18:03:00,58.3,53.0,29.99,ENE,58,7.0,7.0,83,0.00,,,0.00,Weather View 32 v70,2013-12-03 23:03:00,
2013-12-03 18:05:00,58.2,52.9,29.98,ENE,66,7.0,8.0,83,0.00,,,0.00,Weather View 32 v70,2013-12-03 23:05:00,
2013-12-03 18:07:00,58.2,52.9,29.98,ENE,59,7.0,8.0,83,0.00,,,0.00,Weather View 32 v70,2013-12-03 23:07:00,
2013-12-03 18:08:00,58.2,52.9,29.98,ENE,58,4.0,8.0,83,0.00,,,0.00,Weather View 32 v70,2013-12-03 23:08:00,
2013-12-03 18:11:00,58.2,52.9,29.99,NE,44,4.0,8.0,83,0.00,,,0.00,Weather View 32 v70,2013-12-03 23:11:00,
2013-12-03 18:12:00,58.1,52.9,29.99,NE,52,7.0,8.0,83,0.00,,,0.00,Weather View 32 v70,2013-12-03 23:12:00,
2013-12-03 18:13:00,58.1,52.9,29.99,NE,49,7.0,8.0,83,0.00,,,0.00,Weather View 32 v70,2013-12-03 23:13:00,
2013-12-03 18:16:00,58.1,52.9,29.99,NE,46,4.0,8.0,83,0.00,,,0.00,Weather View 32 v70,2013-12-03 23:16:00,
2013-12-03 18:18:00,58.1,52.9,29.99,East,90,4.0,8.0,83,0.00,,,0.00,Weather View 32 v70,2013-12-03 23:18:00,
2013-12-03 18:19:00,58.1,52.9,29.99,ENE,59,7.0,8.0,83,0.00,,,0.00,Weather View 32 v70,2013-12-03 23:19:00,
2013-12-03 18:21:00,58.1,52.9,29.99,East,86,4.0,8.0,83,0.00,,,0.00,Weather View 32 v70,2013-12-03 23:21:00,
2013-12-03 18:23:00,58.1,52.9,29.99,NE,44,3.0,8.0,83,0.00,,,0.00,Weather View 32 v70,2013-12-03 23:23:00,
2013-12-03 18:24:00,58.1,52.8,29.99,NNE,17,3.0,8.0,83,0.00,,,0.00,Weather View 32 v70,2013-12-03 23:24:00,
2013-12-03 18:26:00,58.1,52.8,29.99,ENE,66,6.0,8.0,83,0.00,,,0.00,Weather View 32 v70,2013-12-03 23:26:00,
2013-12-03 18:28:00,58.1,52.8,29.99,NE,49,2.0,8.0,83,0.00,,,0.00,Weather View 32 v70,2013-12-03 23:28:00,
2013-12-03 18:29:00,58.2,52.9,29.99,NNE,27,4.0,8.0,83,0.00,,,0.00,Weather View 32 v70,2013-12-03 23:29:00,
2013-12-03 18:31:00,58.2,52.9,29.99,ENE,58,4.0,8.0,83,0.00,,,0.00,Weather View 32 v70,2013-12-03 23:31:00,
2013-12-03 18:33:00,58.2,52.9,29.99,NE,49,5.0,8.0,83,0.00,,,0.00,Weather View 32 v70,2013-12-03 23:33:00,
2013-12-03 18:34:00,58.3,53.0,29.99,NE,55,4.0,8.0,83,0.00,,,0.00,Weather View 32 v70,2013-12-03 23:34:00,
2013-12-03 18:36:00,58.2,52.9,30.00,NE,51,6.0,8.0,83,0.00,,,0.00,Weather View 32 v70,2013-12-03 23:36:00,
2013-12-03 18:38:00,58.3,53.0,30.00,ENE,62,5.0,8.0,83,0.00,,,0.00,Weather View 32 v70,2013-12-03 23:38:00,
2013-12-03 18:39:00,58.3,53.0,30.00,NE,56,6.0,8.0,83,0.00,,,0.00,Weather View 32 v70,2013-12-03 23:39:00,
2013-12-03 18:40:00,58.3,53.0,30.00,ENE,72,6.0,8.0,83,0.00,,,0.00,Weather View 32 v70,2013-12-03 23:40:00,
2013-12-03 18:42:00,58.3,53.1,30.00,NE,46,5.0,8.0,83,0.00,,,0.00,Weather View 32 v70,2013-12-03 23:42:00,
2013-12-03 18:43:00,58.3,53.1,30.00,ENE,63,4.0,8.0,83,0.00,,,0.00,Weather View 32 v70,2013-12-03 23:43:00,
2013-12-03 18:44:00,58.3,53.1,30.00,NE,55,4.0,8.0,83,0.00,,,0.00,Weather View 32 v70,2013-12-03 23:44:00,
2013-12-03 18:45:00,58.4,53.2,30.00,ENE,69,4.0,8.0,83,0.00,,,0.00,Weather View 32 v70,2013-12-03 23:45:00,
2013-12-03 18:47:00,58.5,53.3,30.00,NE,49,5.0,8.0,83,0.00,,,0.00,Weather View 32 v70,2013-12-03 23:47:00,
2013-12-03 18:49:00,58.6,53.4,30.00,ENE,73,4.0,8.0,83,0.00,,,0.00,Weather View 32 v70,2013-12-03 23:49:00,
2013-12-03 18:50:00,58.6,53.4,30.00,East,80,3.0,8.0,83,0.00,,,0.00,Weather View 32 v70,2013-12-03 23:50:00,
2013-12-03 18:52:00,58.6,53.4,30.00,NNE,23,4.0,8.0,83,0.00,,,0.00,Weather View 32 v70,2013-12-03 23:52:00,
2013-12-03 18:54:00,58.7,53.5,30.00,ENE,59,4.0,8.0,83,0.00,,,0.00,Weather View 32 v70,2013-12-03 23:54:00,
2013-12-03 18:55:00,58.7,53.5,30.00,NE,49,7.0,8.0,83,0.00,,,0.00,Weather View 32 v70,2013-12-03 23:55:00,
2013-12-03 18:56:00,58.7,53.5,30.00,NE,52,7.0,8.0,83,0.00,,,0.00,Weather View 32 v70,2013-12-03 23:56:00,
2013-12-03 18:57:00,58.7,53.5,30.00,ENE,63,7.0,8.0,83,0.00,,,0.00,Weather View 32 v70,2013-12-03 23:57:00,
2013-12-03 18:59:00,58.7,53.5,30.00,NE,56,7.0,8.0,83,0.00,,,0.00,Weather View 32 v70,2013-12-03 23:59:00,
2013-12-03 19:00:00,58.7,53.5,30.00,ENE,66,6.0,8.0,83,0.00,,,0.00,Weather View 32 v70,2013-12-04 00:00:00,
2013-12-03 19:01:00,58.7,53.5,30.00,NE,52,7.0,8.0,83,0.00,,,0.00,Weather View 32 v70,2013-12-04 00:01:00,
2013-12-03 19:02:00,58.7,53.5,30.00,ENE,59,6.0,8.0,83,0.00,,,0.00,Weather View 32 v70,2013-12-04 00:02:00,
2013-12-03 19:04:00,58.7,53.5,30.00,ENE,70,5.0,9.0,83,0.00,,,0.00,Weather View 32 v70,2013-12-04 00:04:00,
2013-12-03 19:05:00,58.8,53.6,30.00,NE,41,6.0,9.0,83,0.00,,,0.00,Weather View 32 v70,2013-12-04 00:05:00,
2013-12-03 19:06:00,58.8,53.6,30.00,ENE,77,8.0,9.0,83,0.00,,,0.00,Weather View 32 v70,2013-12-04 00:06:00,
2013-12-03 19:07:00,58.8,53.6,30.00,ENE,66,5.0,9.0,83,0.00,,,0.00,Weather View 32 v70,2013-12-04 00:07:00,
2013-12-03 19:08:00,58.8,53.6,30.00,NE,53,5.0,9.0,83,0.00,,,0.00,Weather View 32 v70,2013-12-04 00:08:00,
2013-12-03 19:09:00,58.8,53.6,30.00,ENE,58,5.0,9.0,83,0.00,,,0.00,Weather View 32 v70,2013-12-04 00:09:00,
2013-12-03 19:10:00,58.8,53.6,30.00,ENE,63,5.0,9.0,83,0.00,,,0.00,Weather View 32 v70,2013-12-04 00:10:00,
2013-12-03 19:11:00,58.9,53.8,30.00,East,83,3.0,9.0,83,0.00,,,0.00,Weather View 32 v70,2013-12-04 00:11:00,
2013-12-03 19:12:00,58.9,53.8,30.00,ENE,69,6.0,9.0,83,0.00,,,0.00,Weather View 32 v70,2013-12-04 00:12:00,
2013-12-03 19:13:00,59.0,53.9,30.00,ENE,73,5.0,9.0,83,0.00,,,0.00,Weather View 32 v70,2013-12-04 00:13:00,
2013-12-03 19:14:00,59.0,53.9,30.00,ENE,62,7.0,9.0,83,0.00,,,0.00,Weather View 32 v70,2013-12-04 00:14:00,
2013-12-03 19:15:00,59.0,53.9,30.00,East,84,6.0,9.0,83,0.00,,,0.00,Weather View 32 v70,2013-12-04 00:15:00,
2013-12-03 19:16:00,58.9,53.8,30.00,ENE,68,6.0,9.0,83,0.00,,,0.00,Weather View 32 v70,2013-12-04 00:16:00,
2013-12-03 19:17:00,59.0,53.9,30.00,NNE,25,5.0,9.0,83,0.00,,,0.00,Weather View 32 v70,2013-12-04 00:17:00,
2013-12-03 19:19:00,58.9,53.8,30.00,ENE,72,4.0,9.0,83,0.00,,,0.00,Weather View 32 v70,2013-12-04 00:19:00,
2013-12-03 19:20:00,58.9,53.8,30.00,ENE,68,6.0,9.0,83,0.00,,,0.00,Weather View 32 v70,2013-12-04 00:20:00,
2013-12-03 19:21:00,59.0,53.9,30.01,ENE,72,5.0,9.0,83,0.00,,,0.00,Weather View 32 v70,2013-12-04 00:21:00,
2013-12-03 19:22:00,58.9,53.8,30.01,NE,56,6.0,9.0,83,0.00,,,0.00,Weather View 32 v70,2013-12-04 00:22:00,
2013-12-03 19:24:00,58.9,53.7,30.01,East,86,5.0,9.0,83,0.00,,,0.00,Weather View 32 v70,2013-12-04 00:24:00,
2013-12-03 19:25:00,58.9,53.7,30.01,ENE,59,7.0,9.0,83,0.00,,,0.00,Weather View 32 v70,2013-12-04 00:25:00,
2013-12-03 19:26:00,58.9,53.7,30.01,ENE,58,5.0,9.0,83,0.00,,,0.00,Weather View 32 v70,2013-12-04 00:26:00,
2013-12-03 19:27:00,58.8,53.6,30.01,ENE,69,5.0,9.0,83,0.00,,,0.00,Weather View 32 v70,2013-12-04 00:27:00,
2013-12-03 19:28:00,58.9,53.7,30.01,ENE,75,5.0,9.0,83,0.00,,,0.00,Weather View 32 v70,2013-12-04 00:28:00,
2013-12-03 19:29:00,59.0,53.8,30.01,ENE,73,6.0,9.0,83,0.00,,,0.00,Weather View 32 v70,2013-12-04 00:29:00,
2013-12-03 19:31:00,59.0,53.8,30.00,ENE,77,5.0,9.0,83,0.00,,,0.00,Weather View 32 v70,2013-12-04 00:31:00,
2013-12-03 19:32:00,59.0,53.8,30.01,NE,53,5.0,9.0,83,0.00,,,0.00,Weather View 32 v70,2013-12-04 00:32:00,
2013-12-03 19:34:00,59.0,53.8,30.00,ENE,77,7.0,9.0,83,0.00,,,0.00,Weather View 32 v70,2013-12-04 00:34:00,
2013-12-03 19:36:00,59.0,53.9,30.00,ENE,68,6.0,9.0,83,0.00,,,0.00,Weather View 32 v70,2013-12-04 00:36:00,
2013-12-03 19:37:00,59.0,53.9,30.00,NE,55,5.0,9.0,83,0.00,,,0.00,Weather View 32 v70,2013-12-04 00:37:00,
2013-12-03 19:39:00,59.0,53.9,30.01,ENE,76,5.0,9.0,83,0.00,,,0.00,Weather View 32 v70,2013-12-04 00:39:00,
2013-12-03 19:40:00,59.0,53.9,30.01,ENE,72,3.0,9.0,83,0.00,,,0.00,Weather View 32 v70,2013-12-04 00:40:00,
2013-12-03 19:41:00,59.0,53.9,30.01,ENE,70,4.0,9.0,83,0.00,,,0.00,Weather View 32 v70,2013-12-04 00:41:00,
2013-12-03 19:42:00,59.0,53.9,30.01,ENE,59,6.0,9.0,83,0.00,,,0.00,Weather View 32 v70,2013-12-04 00:42:00,
2013-12-03 19:44:00,59.0,53.9,30.01,ENE,65,5.0,9.0,83,0.00,,,0.00,Weather View 32 v70,2013-12-04 00:44:00,
2013-12-03 19:45:00,59.0,53.9,30.00,ENE,72,6.0,9.0,83,0.00,,,0.00,Weather View 32 v70,2013-12-04 00:45:00,
2013-12-03 19:47:00,59.0,53.9,30.00,ENE,72,6.0,9.0,83,0.00,,,0.00,Weather View 32 v70,2013-12-04 00:47:00,
2013-12-03 19:49:00,58.9,53.8,30.00,ENE,73,7.0,9.0,83,0.00,,,0.00,Weather View 32 v70,2013-12-04 00:49:00,
2013-12-03 19:50:00,58.9,53.8,30.00,ENE,70,7.0,9.0,83,0.00,,,0.00,Weather View 32 v70,2013-12-04 00:50:00,
2013-12-03 19:52:00,58.9,53.8,30.00,ENE,69,7.0,9.0,83,0.00,,,0.00,Weather View 32 v70,2013-12-04 00:52:00,
2013-12-03 19:55:00,59.0,54.0,30.00,ENE,69,8.0,9.0,84,0.00,,,0.00,Weather View 32 v70,2013-12-04 00:55:00,
2013-12-03 19:57:00,59.1,54.1,30.00,East,86,7.0,9.0,84,0.00,,,0.00,Weather View 32 v70,2013-12-04 00:57:00,
2013-12-03 19:58:00,59.1,54.1,30.01,East,98,4.0,9.0,84,0.00,,,0.00,Weather View 32 v70,2013-12-04 00:58:00,
2013-12-03 20:00:00,59.2,54.3,30.01,ENE,63,6.0,9.0,84,0.00,,,0.00,Weather View 32 v70,2013-12-04 01:00:00,
2013-12-03 20:01:00,59.2,54.3,30.01,ENE,62,7.0,9.0,84,0.00,,,0.00,Weather View 32 v70,2013-12-04 01:01:00,
2013-12-03 20:02:00,59.4,54.5,30.01,ENE,73,6.0,9.0,84,0.00,,,0.00,Weather View 32 v70,2013-12-04 01:02:00,
2013-12-03 20:03:00,59.4,54.5,30.01,ENE,77,6.0,9.0,84,0.00,,,0.00,Weather View 32 v70,2013-12-04 01:03:00,
2013-12-03 20:06:00,59.5,54.6,30.01,ENE,70,7.0,8.0,84,0.00,,,0.00,Weather View 32 v70,2013-12-04 01:06:00,
2013-12-03 20:07:00,59.5,54.6,30.01,ENE,73,7.0,8.0,84,0.00,,,0.00,Weather View 32 v70,2013-12-04 01:07:00,
2013-12-03 20:09:00,59.5,54.6,30.01,ENE,76,6.0,8.0,84,0.00,,,0.00,Weather View 32 v70,2013-12-04 01:09:00,
2013-12-03 20:11:00,59.5,54.7,30.01,ENE,70,6.0,8.0,84,0.00,,,0.00,Weather View 32 v70,2013-12-04 01:11:00,
2013-12-03 20:12:00,59.6,54.8,30.00,East,84,5.0,8.0,84,0.00,,,0.00,Weather View 32 v70,2013-12-04 01:12:00,
2013-12-03 20:14:00,59.6,54.8,30.01,East,79,6.0,8.0,84,0.00,,,0.00,Weather View 32 v70,2013-12-04 01:14:00,
2013-12-03 20:15:00,59.6,54.8,30.00,East,79,6.0,8.0,84,0.00,,,0.00,Weather View 32 v70,2013-12-04 01:15:00,
2013-12-03 20:16:00,59.7,54.9,30.01,East,79,5.0,8.0,84,0.00,,,0.00,Weather View 32 v70,2013-12-04 01:16:00,
2013-12-03 20:18:00,59.7,54.9,30.01,ENE,60,5.0,8.0,84,0.00,,,0.00,Weather View 32 v70,2013-12-04 01:18:00,
2013-12-03 20:19:00,59.7,54.9,30.01,NE,49,4.0,8.0,84,0.00,,,0.00,Weather View 32 v70,2013-12-04 01:19:00,
2013-12-03 20:20:00,59.7,54.9,30.01,East,83,3.0,8.0,84,0.00,,,0.00,Weather View 32 v70,2013-12-04 01:20:00,
2013-12-03 20:21:00,59.9,55.1,30.01,ENE,76,6.0,8.0,84,0.00,,,0.00,Weather View 32 v70,2013-12-04 01:21:00,
2013-12-03 20:23:00,59.8,55.0,30.01,East,79,5.0,8.0,84,0.00,,,0.00,Weather View 32 v70,2013-12-04 01:23:00,
2013-12-03 20:24:00,59.8,55.0,30.01,East,87,5.0,8.0,84,0.00,,,0.00,Weather View 32 v70,2013-12-04 01:24:00,
2013-12-03 20:25:00,59.8,55.0,30.01,ENE,75,4.0,8.0,84,0.00,,,0.00,Weather View 32 v70,2013-12-04 01:25:00,
2013-12-03 20:26:00,59.9,55.1,30.01,ENE,69,5.0,8.0,84,0.00,,,0.00,Weather View 32 v70,2013-12-04 01:26:00,
2013-12-03 20:27:00,59.9,55.1,30.01,East,79,4.0,8.0,84,0.00,,,0.00,Weather View 32 v70,2013-12-04 01:27:00,
2013-12-03 20:28:00,59.9,55.1,30.01,East,84,5.0,8.0,84,0.00,,,0.00,Weather View 32 v70,2013-12-04 01:28:00,
2013-12-03 20:29:00,59.9,55.1,30.01,ENE,68,5.0,8.0,84,0.00,,,0.00,Weather View 32 v70,2013-12-04 01:29:00,
2013-12-03 20:30:00,59.9,55.1,30.01,East,79,5.0,8.0,84,0.00,,,0.00,Weather View 32 v70,2013-12-04 01:30:00,
2013-12-03 20:31:00,60.1,55.3,30.01,ENE,66,5.0,8.0,84,0.00,,,0.00,Weather View 32 v70,2013-12-04 01:31:00,
2013-12-03 20:32:00,60.1,55.3,30.01,ENE,69,4.0,8.0,84,0.00,,,0.00,Weather View 32 v70,2013-12-04 01:32:00,
2013-12-03 20:33:00,60.1,55.3,30.01,East,90,4.0,8.0,84,0.00,,,0.00,Weather View 32 v70,2013-12-04 01:33:00,
2013-12-03 20:34:00,60.2,55.4,30.01,ENE,68,4.0,8.0,84,0.00,,,0.00,Weather View 32 v70,2013-12-04 01:34:00,
2013-12-03 20:35:00,60.0,55.2,30.01,East,84,5.0,8.0,84,0.00,,,0.00,Weather View 32 v70,2013-12-04 01:35:00,
2013-12-03 20:36:00,60.1,55.3,30.01,ENE,76,4.0,8.0,84,0.00,,,0.00,Weather View 32 v70,2013-12-04 01:36:00,
2013-12-03 20:37:00,60.1,55.3,30.01,ENE,76,5.0,8.0,84,0.00,,,0.00,Weather View 32 v70,2013-12-04 01:37:00,
2013-12-03 20:39:00,60.2,55.4,30.01,ESE,105,4.0,8.0,84,0.00,,,0.00,Weather View 32 v70,2013-12-04 01:39:00,
2013-12-03 20:40:00,60.2,55.4,30.01,East,93,5.0,8.0,84,0.00,,,0.00,Weather View 32 v70,2013-12-04 01:40:00,
2013-12-03 20:41:00,60.2,55.4,30.01,East,86,5.0,8.0,84,0.00,,,0.00,Weather View 32 v70,2013-12-04 01:41:00,
2013-12-03 20:42:00,60.2,55.4,30.01,ENE,70,4.0,8.0,84,0.00,,,0.00,Weather View 32 v70,2013-12-04 01:42:00,
2013-12-03 20:43:00,60.1,55.3,30.01,East,86,4.0,8.0,84,0.00,,,0.00,Weather View 32 v70,2013-12-04 01:43:00,
2013-12-03 20:44:00,60.2,55.4,30.01,East,89,4.0,8.0,84,0.00,,,0.00,Weather View 32 v70,2013-12-04 01:44:00,
2013-12-03 20:45:00,60.1,55.3,30.01,ENE,77,5.0,8.0,84,0.00,,,0.00,Weather View 32 v70,2013-12-04 01:45:00,
2013-12-03 20:47:00,60.2,55.4,30.01,East,93,4.0,8.0,84,0.00,,,0.00,Weather View 32 v70,2013-12-04 01:47:00,
2013-12-03 20:48:00,60.3,55.5,30.01,East,83,5.0,8.0,84,0.00,,,0.00,Weather View 32 v70,2013-12-04 01:48:00,
2013-12-03 20:50:00,60.2,55.4,30.01,East,82,3.0,8.0,84,0.00,,,0.00,Weather View 32 v70,2013-12-04 01:50:00,
2013-12-03 20:52:00,60.3,55.5,30.01,ENE,77,3.0,8.0,84,0.00,,,0.00,Weather View 32 v70,2013-12-04 01:52:00,
2013-12-03 20:54:00,60.2,55.5,30.01,ENE,69,2.0,8.0,84,0.00,,,0.00,Weather View 32 v70,2013-12-04 01:54:00,
2013-12-03 20:55:00,60.2,55.5,30.02,ENE,65,0.0,8.0,84,0.00,,,0.00,Weather View 32 v70,2013-12-04 01:55:00,
2013-12-03 20:56:00,60.1,55.4,30.01,ENE,65,0.0,8.0,84,0.00,,,0.00,Weather View 32 v70,2013-12-04 01:56:00,
2013-12-03 20:57:00,60.1,55.4,30.01,ENE,76,3.0,8.0,84,0.00,,,0.00,Weather View 32 v70,2013-12-04 01:57:00,
2013-12-03 20:58:00,60.2,55.5,30.02,ENE,76,4.0,8.0,85,0.00,,,0.00,Weather View 32 v70,2013-12-04 01:58:00,
2013-12-03 20:59:00,60.2,55.5,30.02,East,79,4.0,8.0,85,0.00,,,0.00,Weather View 32 v70,2013-12-04 01:59:00,
2013-12-03 21:00:00,60.1,55.4,30.01,ENE,73,5.0,8.0,85,0.00,,,0.00,Weather View 32 v70,2013-12-04 02:00:00,
2013-12-03 21:01:00,60.1,55.4,30.02,East,84,5.0,8.0,85,0.00,,,0.00,Weather View 32 v70,2013-12-04 02:01:00,
2013-12-03 21:02:00,60.1,55.4,30.02,East,80,5.0,8.0,85,0.00,,,0.00,Weather View 32 v70,2013-12-04 02:02:00,
2013-12-03 21:04:00,60.1,55.4,30.01,East,82,5.0,8.0,85,0.00,,,0.00,Weather View 32 v70,2013-12-04 02:04:00,
2013-12-03 21:05:00,60.0,55.4,30.01,ENE,75,4.0,8.0,85,0.00,,,0.00,Weather View 32 v70,2013-12-04 02:05:00,
2013-12-03 21:06:00,60.0,55.4,30.02,East,82,5.0,8.0,85,0.00,,,0.00,Weather View 32 v70,2013-12-04 02:06:00,
2013-12-03 21:07:00,60.1,55.5,30.02,East,79,5.0,8.0,85,0.00,,,0.00,Weather View 32 v70,2013-12-04 02:07:00,
2013-12-03 21:09:00,60.0,55.4,30.02,ESE,105,4.0,7.0,85,0.00,,,0.00,Weather View 32 v70,2013-12-04 02:09:00,
2013-12-03 21:10:00,60.1,55.5,30.02,East,79,4.0,7.0,85,0.00,,,0.00,Weather View 32 v70,2013-12-04 02:10:00,
2013-12-03 21:11:00,60.1,55.5,30.02,ENE,77,4.0,7.0,85,0.00,,,0.00,Weather View 32 v70,2013-12-04 02:11:00,
2013-12-03 21:12:00,60.1,55.5,30.02,East,82,5.0,7.0,85,0.00,,,0.00,Weather View 32 v70,2013-12-04 02:12:00,
2013-12-03 21:14:00,60.1,55.5,30.02,ENE,76,4.0,7.0,85,0.00,,,0.00,Weather View 32 v70,2013-12-04 02:14:00,
2013-12-03 21:15:00,60.1,55.5,30.02,East,90,4.0,7.0,85,0.00,,,0.00,Weather View 32 v70,2013-12-04 02:15:00,
2013-12-03 21:16:00,60.2,55.6,30.01,East,86,5.0,7.0,85,0.00,,,0.00,Weather View 32 v70,2013-12-04 02:16:00,
2013-12-03 21:17:00,60.2,55.6,30.02,East,79,5.0,6.0,85,0.00,,,0.00,Weather View 32 v70,2013-12-04 02:17:00,
2013-12-03 21:18:00,60.1,55.5,30.01,East,93,5.0,6.0,85,0.00,,,0.00,Weather View 32 v70,2013-12-04 02:18:00,
2013-12-03 21:20:00,60.1,55.5,30.01,ENE,75,5.0,6.0,85,0.00,,,0.00,Weather View 32 v70,2013-12-04 02:20:00,
2013-12-03 21:21:00,60.2,55.6,30.02,East,83,5.0,6.0,85,0.00,,,0.00,Weather View 32 v70,2013-12-04 02:21:00,
2013-12-03 21:22:00,60.2,55.6,30.02,East,83,6.0,6.0,85,0.00,,,0.00,Weather View 32 v70,2013-12-04 02:22:00,
2013-12-03 21:23:00,60.2,55.6,30.01,East,79,6.0,6.0,85,0.00,,,0.00,Weather View 32 v70,2013-12-04 02:23:00,
2013-12-03 21:25:00,60.2,55.6,30.01,East,93,6.0,7.0,85,0.00,,,0.00,Weather View 32 v70,2013-12-04 02:25:00,
2013-12-03 21:26:00,60.2,55.6,30.01,East,82,6.0,7.0,85,0.00,,,0.00,Weather View 32 v70,2013-12-04 02:26:00,
2013-12-03 21:27:00,60.2,55.6,30.01,East,80,5.0,7.0,85,0.00,,,0.00,Weather View 32 v70,2013-12-04 02:27:00,
2013-12-03 21:28:00,60.2,55.6,30.01,East,84,6.0,7.0,85,0.00,,,0.00,Weather View 32 v70,2013-12-04 02:28:00,
2013-12-03 21:30:00,60.3,55.7,30.02,East,89,6.0,7.0,85,0.00,,,0.00,Weather View 32 v70,2013-12-04 02:30:00,
2013-12-03 21:31:00,60.2,55.6,30.02,East,91,6.0,7.0,85,0.00,,,0.00,Weather View 32 v70,2013-12-04 02:31:00,
2013-12-03 21:33:00,60.2,55.5,30.02,East,91,5.0,7.0,85,0.00,,,0.00,Weather View 32 v70,2013-12-04 02:33:00,
2013-12-03 21:35:00,60.3,55.6,30.02,East,86,5.0,7.0,85,0.00,,,0.00,Weather View 32 v70,2013-12-04 02:35:00,
2013-12-03 21:36:00,60.4,55.6,30.02,East,91,4.0,7.0,84,0.00,,,0.00,Weather View 32 v70,2013-12-04 02:36:00,
2013-12-03 21:37:00,60.4,55.6,30.02,ESE,107,4.0,7.0,84,0.00,,,0.00,Weather View 32 v70,2013-12-04 02:37:00,
2013-12-03 21:38:00,60.4,55.6,30.02,East,93,5.0,7.0,84,0.00,,,0.00,Weather View 32 v70,2013-12-04 02:38:00,
2013-12-03 21:39:00,60.4,55.6,30.02,ESE,103,4.0,7.0,84,0.00,,,0.00,Weather View 32 v70,2013-12-04 02:39:00,
2013-12-03 21:40:00,60.4,55.6,30.02,East,98,5.0,7.0,84,0.00,,,0.00,Weather View 32 v70,2013-12-04 02:40:00,
2013-12-03 21:41:00,60.5,55.6,30.02,ESE,104,6.0,7.0,84,0.00,,,0.00,Weather View 32 v70,2013-12-04 02:41:00,
2013-12-03 21:42:00,60.5,55.6,30.02,East,89,6.0,7.0,84,0.00,,,0.00,Weather View 32 v70,2013-12-04 02:42:00,
2013-12-03 21:43:00,60.4,55.5,30.02,East,91,6.0,7.0,84,0.00,,,0.00,Weather View 32 v70,2013-12-04 02:43:00,
2013-12-03 21:44:00,60.5,55.6,30.02,East,86,5.0,7.0,84,0.00,,,0.00,Weather View 32 v70,2013-12-04 02:44:00,
2013-12-03 21:45:00,60.5,55.6,30.01,East,100,6.0,7.0,84,0.00,,,0.00,Weather View 32 v70,2013-12-04 02:45:00,
2013-12-03 21:46:00,60.5,55.6,30.01,East,96,6.0,7.0,84,0.00,,,0.00,Weather View 32 v70,2013-12-04 02:46:00,
2013-12-03 21:47:00,60.5,55.6,30.01,East,98,5.0,7.0,84,0.00,,,0.00,Weather View 32 v70,2013-12-04 02:47:00,
2013-12-03 21:48:00,60.4,55.5,30.01,East,89,5.0,7.0,84,0.00,,,0.00,Weather View 32 v70,2013-12-04 02:48:00,
2013-12-03 21:49:00,60.4,55.5,30.01,East,93,6.0,7.0,84,0.00,,,0.00,Weather View 32 v70,2013-12-04 02:49:00,
2013-12-03 21:51:00,60.5,55.7,30.01,ESE,108,6.0,7.0,84,0.00,,,0.00,Weather View 32 v70,2013-12-04 02:51:00,
2013-12-03 21:52:00,60.4,55.6,30.01,East,97,6.0,7.0,84,0.00,,,0.00,Weather View 32 v70,2013-12-04 02:52:00,
2013-12-03 21:53:00,60.4,55.6,30.01,East,98,6.0,7.0,84,0.00,,,0.00,Weather View 32 v70,2013-12-04 02:53:00,
2013-12-03 21:55:00,60.3,55.5,30.01,East,98,6.0,7.0,84,0.00,,,0.00,Weather View 32 v70,2013-12-04 02:55:00,
2013-12-03 21:57:00,60.3,55.6,30.01,ESE,104,6.0,7.0,85,0.00,,,0.00,Weather View 32 v70,2013-12-04 02:57:00,
2013-12-03 21:58:00,60.2,55.5,30.01,East,98,6.0,7.0,85,0.00,,,0.00,Weather View 32 v70,2013-12-04 02:58:00,
2013-12-03 22:00:00,60.2,55.6,30.01,East,97,6.0,8.0,85,0.00,,,0.00,Weather View 32 v70,2013-12-04 03:00:00,
2013-12-03 22:02:00,60.2,55.6,30.01,ESE,117,7.0,8.0,85,0.00,,,0.00,Weather View 32 v70,2013-12-04 03:02:00,
2013-12-03 22:03:00,60.2,55.6,30.01,ESE,115,7.0,8.0,85,0.00,,,0.00,Weather View 32 v70,2013-12-04 03:03:00,
2013-12-03 22:04:00,60.2,55.6,30.01,ESE,111,7.0,8.0,85,0.00,,,0.00,Weather View 32 v70,2013-12-04 03:04:00,
2013-12-03 22:05:00,60.1,55.5,30.01,ESE,110,7.0,8.0,85,0.00,,,0.00,Weather View 32 v70,2013-12-04 03:05:00,
2013-12-03 22:07:00,60.2,55.6,30.01,ESE,114,7.0,8.0,85,0.00,,,0.00,Weather View 32 v70,2013-12-04 03:07:00,
2013-12-03 22:08:00,60.2,55.7,30.01,ESE,105,7.0,8.0,85,0.00,,,0.00,Weather View 32 v70,2013-12-04 03:08:00,
2013-12-03 22:09:00,60.2,55.7,30.00,East,100,7.0,8.0,85,0.00,,,0.00,Weather View 32 v70,2013-12-04 03:09:00,
2013-12-03 22:10:00,60.1,55.7,30.00,East,93,7.0,8.0,85,0.00,,,0.00,Weather View 32 v70,2013-12-04 03:10:00,
2013-12-03 22:12:00,60.0,55.6,30.00,ESE,103,6.0,8.0,85,0.00,,,0.00,Weather View 32 v70,2013-12-04 03:12:00,
2013-12-03 22:13:00,60.1,55.7,30.00,ESE,107,6.0,8.0,86,0.00,,,0.00,Weather View 32 v70,2013-12-04 03:13:00,
2013-12-03 22:14:00,59.9,55.6,30.00,East,94,6.0,8.0,86,0.00,,,0.00,Weather View 32 v70,2013-12-04 03:14:00,
2013-12-03 22:16:00,59.9,55.6,30.00,East,98,7.0,8.0,86,0.00,,,0.00,Weather View 32 v70,2013-12-04 03:16:00,
2013-12-03 22:17:00,59.9,55.7,30.00,ESE,111,7.0,8.0,86,0.00,,,0.00,Weather View 32 v70,2013-12-04 03:17:00,
2013-12-03 22:18:00,59.9,55.7,30.00,East,98,6.0,8.0,86,0.00,,,0.00,Weather View 32 v70,2013-12-04 03:18:00,
2013-12-03 22:19:00,59.9,55.7,30.00,East,101,6.0,8.0,86,0.00,,,0.00,Weather View 32 v70,2013-12-04 03:19:00,
2013-12-03 22:21:00,59.9,55.7,30.01,ESE,107,6.0,8.0,86,0.00,,,0.00,Weather View 32 v70,2013-12-04 03:21:00,
2013-12-03 22:22:00,59.9,55.7,30.01,ESE,105,7.0,8.0,86,0.00,,,0.00,Weather View 32 v70,2013-12-04 03:22:00,
2013-12-03 22:23:00,59.9,55.7,30.01,ESE,105,4.0,8.0,86,0.00,,,0.00,Weather View 32 v70,2013-12-04 03:23:00,
2013-12-03 22:24:00,59.9,55.7,30.01,ESE,114,5.0,8.0,86,0.00,,,0.00,Weather View 32 v70,2013-12-04 03:24:00,
2013-12-03 22:26:00,59.9,55.8,30.01,ESE,114,5.0,8.0,86,0.00,,,0.00,Weather View 32 v70,2013-12-04 03:26:00,
2013-12-03 22:27:00,60.0,55.9,30.01,ESE,110,5.0,8.0,86,0.00,,,0.00,Weather View 32 v70,2013-12-04 03:27:00,
2013-12-03 22:28:00,59.9,55.8,30.01,ESE,118,5.0,8.0,86,0.00,,,0.00,Weather View 32 v70,2013-12-04 03:28:00,
2013-12-03 22:29:00,60.1,56.0,30.01,ESE,108,5.0,8.0,86,0.00,,,0.00,Weather View 32 v70,2013-12-04 03:29:00,
2013-12-03 22:31:00,60.1,56.0,30.01,ESE,111,5.0,8.0,87,0.00,,,0.00,Weather View 32 v70,2013-12-04 03:31:00,
2013-12-03 22:32:00,60.0,55.9,30.01,East,91,5.0,8.0,87,0.00,,,0.00,Weather View 32 v70,2013-12-04 03:32:00,
2013-12-03 22:33:00,60.0,55.9,30.01,ESE,117,5.0,8.0,87,0.00,,,0.00,Weather View 32 v70,2013-12-04 03:33:00,
2013-12-03 22:34:00,60.1,56.0,30.01,ESE,120,4.0,8.0,87,0.00,,,0.00,Weather View 32 v70,2013-12-04 03:34:00,
2013-12-03 22:35:00,60.1,56.0,30.01,SE,132,4.0,8.0,87,0.00,,,0.00,Weather View 32 v70,2013-12-04 03:35:00,
2013-12-03 22:37:00,60.2,56.1,30.02,ESE,121,4.0,8.0,87,0.00,,,0.00,Weather View 32 v70,2013-12-04 03:37:00,
2013-12-03 22:38:00,60.2,56.1,30.02,ESE,113,3.0,8.0,87,0.00,,,0.00,Weather View 32 v70,2013-12-04 03:38:00,
2013-12-03 22:39:00,60.3,56.2,30.02,East,93,3.0,8.0,86,0.00,,,0.00,Weather View 32 v70,2013-12-04 03:39:00,
2013-12-03 22:40:00,60.2,56.1,30.02,NE,55,0.0,8.0,86,0.00,,,0.00,Weather View 32 v70,2013-12-04 03:40:00,
2013-12-03 22:42:00,60.4,56.3,30.02,NE,53,0.0,8.0,86,0.00,,,0.00,Weather View 32 v70,2013-12-04 03:42:00,
2013-12-03 22:43:00,60.4,56.3,30.02,NE,53,0.0,8.0,86,0.00,,,0.00,Weather View 32 v70,2013-12-04 03:43:00,
2013-12-03 22:44:00,60.4,56.3,30.02,NE,53,0.0,8.0,86,0.00,,,0.00,Weather View 32 v70,2013-12-04 03:44:00,
2013-12-03 22:45:00,60.3,56.1,30.02,NE,53,0.0,8.0,86,0.00,,,0.00,Weather View 32 v70,2013-12-04 03:45:00,
2013-12-03 22:47:00,60.5,56.3,30.02,ESE,111,3.0,8.0,86,0.00,,,0.00,Weather View 32 v70,2013-12-04 03:47:00,
2013-12-03 22:48:00,60.5,56.3,30.02,East,100,3.0,8.0,86,0.00,,,0.00,Weather View 32 v70,2013-12-04 03:48:00,
2013-12-03 22:49:00,60.5,56.3,30.01,ESE,104,4.0,8.0,86,0.00,,,0.00,Weather View 32 v70,2013-12-04 03:49:00,
2013-12-03 22:50:00,60.5,56.3,30.02,ESE,113,4.0,8.0,86,0.00,,,0.00,Weather View 32 v70,2013-12-04 03:50:00,
2013-12-03 22:52:00,60.5,56.2,30.02,East,97,3.0,8.0,86,0.00,,,0.00,Weather View 32 v70,2013-12-04 03:52:00,
2013-12-03 22:54:00,60.5,56.2,30.02,ESE,114,3.0,8.0,86,0.00,,,0.00,Weather View 32 v70,2013-12-04 03:54:00,
2013-12-03 22:55:00,60.5,56.2,30.02,ESE,110,3.0,8.0,86,0.00,,,0.00,Weather View 32 v70,2013-12-04 03:55:00,
2013-12-03 22:57:00,60.6,56.3,30.01,ESE,115,4.0,8.0,86,0.00,,,0.00,Weather View 32 v70,2013-12-04 03:57:00,
2013-12-03 22:59:00,60.6,56.3,30.01,ESE,118,4.0,8.0,86,0.00,,,0.00,Weather View 32 v70,2013-12-04 03:59:00,
2013-12-03 23:00:00,60.8,56.5,30.01,ESE,111,5.0,8.0,86,0.00,,,0.00,Weather View 32 v70,2013-12-04 04:00:00,
2013-12-03 23:02:00,60.6,56.3,30.01,ESE,117,5.0,8.0,86,0.00,,,0.00,Weather View 32 v70,2013-12-04 04:02:00,
2013-12-03 23:04:00,60.5,56.2,30.01,ESE,107,5.0,8.0,86,0.00,,,0.00,Weather View 32 v70,2013-12-04 04:04:00,
2013-12-03 23:05:00,60.6,56.3,30.01,East,87,5.0,8.0,86,0.00,,,0.00,Weather View 32 v70,2013-12-04 04:05:00,
2013-12-03 23:07:00,60.7,56.4,30.01,East,90,4.0,8.0,86,0.00,,,0.00,Weather View 32 v70,2013-12-04 04:07:00,
2013-12-03 23:09:00,60.6,56.4,30.01,ESE,110,5.0,8.0,86,0.00,,,0.00,Weather View 32 v70,2013-12-04 04:09:00,
2013-12-03 23:10:00,60.7,56.5,30.01,ESE,113,4.0,8.0,86,0.00,,,0.00,Weather View 32 v70,2013-12-04 04:10:00,
2013-12-03 23:12:00,60.7,56.5,30.01,East,94,4.0,8.0,86,0.00,,,0.00,Weather View 32 v70,2013-12-04 04:12:00,
2013-12-03 23:14:00,60.7,56.5,30.01,ESE,108,5.0,8.0,86,0.00,,,0.00,Weather View 32 v70,2013-12-04 04:14:00,
2013-12-03 23:15:00,60.7,56.5,30.01,ESE,118,5.0,8.0,86,0.00,,,0.00,Weather View 32 v70,2013-12-04 04:15:00,
2013-12-03 23:16:00,60.8,56.6,30.01,ESE,110,5.0,8.0,86,0.00,,,0.00,Weather View 32 v70,2013-12-04 04:16:00,
2013-12-03 23:18:00,60.8,56.5,30.01,ESE,117,6.0,8.0,86,0.00,,,0.00,Weather View 32 v70,2013-12-04 04:18:00,
2013-12-03 23:19:00,60.9,56.6,30.01,ESE,118,4.0,7.0,86,0.00,,,0.00,Weather View 32 v70,2013-12-04 04:19:00,
2013-12-03 23:20:00,60.9,56.6,30.01,ESE,110,5.0,7.0,86,0.00,,,0.00,Weather View 32 v70,2013-12-04 04:20:00,
2013-12-03 23:21:00,61.0,56.7,30.01,ESE,120,5.0,7.0,86,0.00,,,0.00,Weather View 32 v70,2013-12-04 04:21:00,
2013-12-03 23:24:00,61.0,56.6,30.01,ESE,107,5.0,7.0,86,0.00,,,0.00,Weather View 32 v70,2013-12-04 04:24:00,
2013-12-03 23:25:00,61.1,56.7,30.01,SE,138,3.0,7.0,86,0.00,,,0.00,Weather View 32 v70,2013-12-04 04:25:00,
2013-12-03 23:26:00,61.1,56.7,30.01,ESE,114,4.0,7.0,86,0.00,,,0.00,Weather View 32 v70,2013-12-04 04:26:00,
2013-12-03 23:29:00,61.0,56.7,30.01,ESE,114,5.0,7.0,86,0.00,,,0.00,Weather View 32 v70,2013-12-04 04:29:00,
2013-12-03 23:30:00,61.1,56.8,30.01,ESE,110,6.0,7.0,86,0.00,,,0.00,Weather View 32 v70,2013-12-04 04:30:00,
2013-12-03 23:31:00,61.1,56.8,30.01,ESE,118,5.0,7.0,86,0.00,,,0.00,Weather View 32 v70,2013-12-04 04:31:00,
2013-12-03 23:34:00,61.0,56.7,30.01,ESE,108,4.0,7.0,86,0.00,,,0.00,Weather View 32 v70,2013-12-04 04:34:00,
2013-12-03 23:35:00,61.0,56.8,30.01,ESE,105,3.0,7.0,86,0.00,,,0.00,Weather View 32 v70,2013-12-04 04:35:00,
2013-12-03 23:36:00,61.0,56.8,30.01,East,97,4.0,7.0,86,0.00,,,0.00,Weather View 32 v70,2013-12-04 04:36:00,
2013-12-03 23:37:00,61.0,56.8,30.01,ESE,114,4.0,7.0,86,0.00,,,0.00,Weather View 32 v70,2013-12-04 04:37:00,
2013-12-03 23:39:00,61.0,56.9,30.01,SE,125,3.0,7.0,86,0.00,,,0.00,Weather View 32 v70,2013-12-04 04:39:00,
2013-12-03 23:40:00,61.0,56.9,30.01,SE,124,4.0,7.0,86,0.00,,,0.00,Weather View 32 v70,2013-12-04 04:40:00,
2013-12-03 23:41:00,61.0,56.9,30.01,ESE,121,4.0,7.0,86,0.00,,,0.00,Weather View 32 v70,2013-12-04 04:41:00,
2013-12-03 23:42:00,61.1,57.0,30.01,ESE,122,4.0,7.0,86,0.00,,,0.00,Weather View 32 v70,2013-12-04 04:42:00,
2013-12-03 23:45:00,60.8,56.7,30.01,SE,124,5.0,7.0,86,0.00,,,0.00,Weather View 32 v70,2013-12-04 04:45:00,
2013-12-03 23:46:00,61.0,56.9,30.01,SE,125,5.0,7.0,86,0.00,,,0.00,Weather View 32 v70,2013-12-04 04:46:00,
2013-12-03 23:47:00,61.1,57.0,30.01,SE,127,6.0,7.0,86,0.00,,,0.00,Weather View 32 v70,2013-12-04 04:47:00,
2013-12-03 23:50:00,61.1,57.0,30.01,SE,124,5.0,7.0,86,0.00,,,0.00,Weather View 32 v70,2013-12-04 04:50:00,
2013-12-03 23:51:00,61.1,57.0,30.01,SE,129,5.0,7.0,86,0.00,,,0.00,Weather View 32 v70,2013-12-04 04:51:00,
2013-12-03 23:52:00,61.1,57.0,30.01,ESE,122,5.0,7.0,86,0.00,,,0.00,Weather View 32 v70,2013-12-04 04:52:00,
2013-12-03 23:55:00,61.1,57.0,30.01,ESE,121,5.0,7.0,86,0.00,,,0.00,Weather View 32 v70,2013-12-04 04:55:00,
2013-12-03 23:56:00,61.2,57.1,30.01,ESE,122,5.0,7.0,87,0.00,,,0.00,Weather View 32 v70,2013-12-04 04:56:00,
2013-12-03 23:57:00,61.1,57.0,30.01,SE,128,6.0,7.0,87,0.00,,,0.00,Weather View 32 v70,2013-12-04 04:57:00,